Wetterdaten: Dienstag, 12.11.2019
Datum Zeit Temp. Aussen Temp. o. S. Temp +5cm Feuchte Auss Luftdruck Regen Sonnenschein Regendauer Solar Windben Empfang
12.11.2019 00:00 5,1 C 3,9 C 3,3 C 97 % 1003,5 hPa 0,0 l/m 0 min 0 min 0 W/m 3,2 km/h (1 Bft) 97,87 %
12.11.2019 00:02 5,1 C 3,3 C 3,3 C 97 % 1003,5 hPa 0,0 l/m 0 min 0 min 0 W/m 6,4 km/h (2 Bft) 97,37 %
12.11.2019 00:04 5,0 C 3,3 C 3,3 C 97 % 1003,5 hPa 0,0 l/m 0 min 0 min 0 W/m 6,4 km/h (2 Bft) 97,92 %
12.11.2019 00:08 4,9 C 3,3 C 3,3 C 97 % 1003,5 hPa 0,0 l/m 0 min 0 min 0 W/m 12,9 km/h (3 Bft) 97,85 %
12.11.2019 00:10 4,9 C 3,3 C 2,8 C 97 % 1003,5 hPa 0,0 l/m 0 min 0 min 0 W/m 12,9 km/h (3 Bft) 97,87 %
12.11.2019 00:12 4,8 C 3,3 C 2,8 C 97 % 1003,5 hPa 0,0 l/m 0 min 0 min 0 W/m 6,4 km/h (2 Bft) 97,87 %
12.11.2019 00:14 4,8 C 3,3 C 2,8 C 97 % 1003,5 hPa 0,0 l/m 0 min 0 min 0 W/m 6,4 km/h (2 Bft) 97,56 %
12.11.2019 00:16 4,8 C 3,3 C 2,8 C 97 % 1003,5 hPa 0,0 l/m 0 min 0 min 0 W/m 6,4 km/h (2 Bft) 95,83 %
12.11.2019 00:18 4,7 C 3,3 C 2,8 C 97 % 1003,5 hPa 0,0 l/m 0 min 0 min 0 W/m 6,4 km/h (2 Bft) 97,92 %
12.11.2019 00:20 4,7 C 3,3 C 2,8 C 97 % 1003,5 hPa 0,0 l/m 0 min 0 min 0 W/m 6,4 km/h (2 Bft) 97,92 %
12.11.2019 00:22 4,7 C 3,3 C 2,8 C 97 % 1003,5 hPa 0,0 l/m 0 min 0 min 0 W/m 12,9 km/h (3 Bft) 97,92 %
12.11.2019 00:24 4,7 C 3,3 C 2,8 C 97 % 1003,5 hPa 0,0 l/m 0 min 0 min 0 W/m 12,9 km/h (3 Bft) 97,83 %
12.11.2019 00:26 4,6 C 3,3 C 2,8 C 97 % 1003,4 hPa 0,0 l/m 0 min 0 min 0 W/m 12,9 km/h (3 Bft) 93,62 %
12.11.2019 00:28 4,6 C 3,3 C 2,8 C 97 % 1003,4 hPa 0,0 l/m 0 min 0 min 0 W/m 6,4 km/h (2 Bft) 95,83 %
12.11.2019 00:30 4,6 C 3,3 C 2,8 C 97 % 1003,4 hPa 0,0 l/m 0 min 0 min 0 W/m 6,4 km/h (2 Bft) 97,87 %
12.11.2019 00:32 4,5 C 3,3 C 2,8 C 97 % 1003,4 hPa 0,0 l/m 0 min 0 min 0 W/m 6,4 km/h (2 Bft) 95,74 %
12.11.2019 00:34 4,5 C 3,3 C 2,8 C 97 % 1003,4 hPa 0,0 l/m 0 min 0 min 0 W/m 6,4 km/h (2 Bft) 97,87 %
12.11.2019 00:36 4,4 C 3,3 C 2,8 C 97 % 1003,4 hPa 0,0 l/m 0 min 0 min 0 W/m 12,9 km/h (3 Bft) 97,87 %
12.11.2019 00:38 4,4 C 3,3 C 2,8 C 97 % 1003,4 hPa 0,0 l/m 0 min 0 min 0 W/m 12,9 km/h (3 Bft) 97,87 %
12.11.2019 00:40 4,4 C 3,3 C 2,8 C 97 % 1003,4 hPa 0,0 l/m 0 min 0 min 0 W/m 16,1 km/h (3 Bft) 100,00 %
12.11.2019 00:42 4,3 C 3,3 C 2,8 C 97 % 1003,4 hPa 0,0 l/m 0 min 0 min 0 W/m 6,4 km/h (2 Bft) 95,65 %
12.11.2019 00:44 4,3 C 3,3 C 2,8 C 97 % 1003,4 hPa 0,0 l/m 0 min 0 min 0 W/m 12,9 km/h (3 Bft) 100,00 %
12.11.2019 00:46 4,3 C 2,8 C 2,8 C 97 % 1003,4 hPa 0,0 l/m 0 min 0 min 0 W/m 12,9 km/h (3 Bft) 100,00 %
12.11.2019 00:48 4,3 C 2,8 C 2,8 C 97 % 1003,4 hPa 0,0 l/m 0 min 0 min 0 W/m 6,4 km/h (2 Bft) 100,00 %
12.11.2019 00:50 4,3 C 2,8 C 2,8 C 97 % 1003,3 hPa 0,0 l/m 0 min 0 min 0 W/m 6,4 km/h (2 Bft) 100,00 %
12.11.2019 00:52 4,2 C 2,8 C 2,8 C 97 % 1003,3 hPa 0,0 l/m 0 min 0 min 0 W/m 12,9 km/h (3 Bft) 100,00 %
12.11.2019 00:54 4,2 C 3,3 C 2,8 C 97 % 1003,4 hPa 0,0 l/m 0 min 0 min 0 W/m 12,9 km/h (3 Bft) 100,00 %
12.11.2019 00:56 4,2 C 3,3 C 2,8 C 97 % 1003,4 hPa 0,0 l/m 0 min 0 min 0 W/m 16,1 km/h (3 Bft) 100,00 %
12.11.2019 00:58 4,2 C 3,3 C 2,8 C 97 % 1003,3 hPa 0,0 l/m 0 min 0 min 0 W/m 6,4 km/h (2 Bft) 97,96 %
12.11.2019 01:00 4,2 C 3,3 C 2,8 C 97 % 1003,3 hPa 0,0 l/m 0 min 0 min 0 W/m 12,9 km/h (3 Bft) 97,87 %
12.11.2019 01:02 4,2 C 3,3 C 2,8 C 97 % 1003,3 hPa 0,0 l/m 0 min 0 min 0 W/m 12,9 km/h (3 Bft) 93,62 %
12.11.2019 01:04 4,2 C 3,3 C 2,8 C 97 % 1003,3 hPa 0,0 l/m 0 min 0 min 0 W/m 6,4 km/h (2 Bft) 95,12 %
12.11.2019 01:06 4,2 C 3,3 C 2,8 C 97 % 1003,3 hPa 0,0 l/m 0 min 0 min 0 W/m 3,2 km/h (1 Bft) 95,83 %
12.11.2019 01:08 4,1 C 3,3 C 2,8 C 97 % 1003,3 hPa 0,0 l/m 0 min 0 min 0 W/m 12,9 km/h (3 Bft) 95,83 %
12.11.2019 01:10 4,1 C 3,3 C 2,8 C 97 % 1003,3 hPa 0,0 l/m 0 min 0 min 0 W/m 12,9 km/h (3 Bft) 93,62 %
12.11.2019 01:12 4,1 C 3,3 C 2,8 C 97 % 1003,3 hPa 0,0 l/m 0 min 0 min 0 W/m 16,1 km/h (3 Bft) 95,74 %
12.11.2019 01:14 4,1 C 3,3 C 2,8 C 97 % 1003,3 hPa 0,0 l/m 0 min 0 min 0 W/m 12,9 km/h (3 Bft) 93,62 %
12.11.2019 01:16 4,1 C 3,3 C 2,8 C 97 % 1003,4 hPa 0,0 l/m 0 min 0 min 0 W/m 16,1 km/h (3 Bft) 93,62 %
12.11.2019 01:18 4,1 C 3,3 C 2,8 C 97 % 1003,3 hPa 0,0 l/m 0 min 0 min 0 W/m 12,9 km/h (3 Bft) 95,83 %
12.11.2019 01:20 4,1 C 3,3 C 2,8 C 97 % 1003,3 hPa 0,0 l/m 0 min 0 min 0 W/m 16,1 km/h (3 Bft) 95,83 %
12.11.2019 01:22 4,1 C 3,3 C 2,8 C 97 % 1003,3 hPa 0,0 l/m 0 min 0 min 0 W/m 12,9 km/h (3 Bft) 54,35 %
12.11.2019 01:24 4,1 C 3,3 C 2,8 C 97 % 1003,4 hPa 0,0 l/m 0 min 0 min 0 W/m 6,4 km/h (2 Bft) 95,56 %
12.11.2019 01:26 4,1 C 3,3 C 2,8 C 97 % 1003,4 hPa 0,0 l/m 0 min 0 min 0 W/m 12,9 km/h (3 Bft) 93,62 %
12.11.2019 01:28 4,1 C 3,3 C 2,8 C 97 % 1003,4 hPa 0,0 l/m 0 min 0 min 0 W/m 12,9 km/h (3 Bft) 95,65 %
12.11.2019 01:30 4,1 C 3,3 C 2,8 C 97 % 1003,4 hPa 0,0 l/m 0 min 0 min 0 W/m 19,3 km/h (3 Bft) 95,74 %
12.11.2019 01:32 4,1 C 3,3 C 2,8 C 97 % 1003,4 hPa 0,0 l/m 0 min 0 min 0 W/m 19,3 km/h (3 Bft) 95,74 %
12.11.2019 01:34 4,1 C 3,3 C 2,8 C 97 % 1003,4 hPa 0,0 l/m 0 min 0 min 0 W/m 12,9 km/h (3 Bft) 95,74 %
12.11.2019 01:36 4,1 C 3,3 C 2,8 C 97 % 1003,4 hPa 0,0 l/m 0 min 0 min 0 W/m 12,9 km/h (3 Bft) 95,74 %
12.11.2019 01:38 4,1 C 3,3 C 2,8 C 97 % 1003,3 hPa 0,0 l/m 0 min 0 min 0 W/m 16,1 km/h (3 Bft) 95,74 %
12.11.2019 01:40 4,2 C 3,3 C 2,8 C 97 % 1003,3 hPa 0,0 l/m 0 min 0 min 0 W/m 16,1 km/h (3 Bft) 95,65 %
12.11.2019 01:42 4,2 C 3,3 C 2,8 C 97 % 1003,3 hPa 0,0 l/m 0 min 0 min 0 W/m 19,3 km/h (3 Bft) 95,74 %
12.11.2019 01:44 4,2 C 3,3 C 2,8 C 97 % 1003,3 hPa 0,0 l/m 0 min 0 min 0 W/m 16,1 km/h (3 Bft) 95,24 %
12.11.2019 01:46 4,2 C 3,3 C 2,8 C 97 % 1003,4 hPa 0,0 l/m 0 min 0 min 0 W/m 25,7 km/h (4 Bft) 95,74 %
12.11.2019 01:48 4,2 C 3,3 C 2,8 C 97 % 1003,3 hPa 0,0 l/m 0 min 0 min 0 W/m 16,1 km/h (3 Bft) 93,75 %
12.11.2019 01:50 4,2 C 3,3 C 2,8 C 97 % 1003,3 hPa 0,0 l/m 0 min 0 min 0 W/m 16,1 km/h (3 Bft) 97,92 %
12.11.2019 01:52 4,2 C 3,3 C 2,8 C 97 % 1003,3 hPa 0,0 l/m 0 min 0 min 0 W/m 16,1 km/h (3 Bft) 97,92 %
12.11.2019 01:54 4,2 C 3,3 C 2,8 C 97 % 1003,3 hPa 0,0 l/m 0 min 0 min 0 W/m 16,1 km/h (3 Bft) 97,87 %
12.11.2019 01:56 4,2 C 3,3 C 2,8 C 97 % 1003,3 hPa 0,0 l/m 0 min 0 min 0 W/m 29,0 km/h (5 Bft) 97,87 %
12.11.2019 01:58 4,2 C 3,3 C 2,8 C 97 % 1003,3 hPa 0,0 l/m 0 min 0 min 0 W/m 16,1 km/h (3 Bft) 95,83 %
12.11.2019 02:00 4,2 C 3,3 C 2,8 C 97 % 1003,3 hPa 0,0 l/m 0 min 0 min 0 W/m 16,1 km/h (3 Bft) 95,74 %
12.11.2019 02:02 4,2 C 3,3 C 2,8 C 97 % 1003,4 hPa 0,0 l/m 0 min 0 min 0 W/m 16,1 km/h (3 Bft) 97,87 %
12.11.2019 02:04 4,2 C 3,3 C 2,8 C 97 % 1003,4 hPa 0,0 l/m 0 min 0 min 0 W/m 6,4 km/h (2 Bft) 100,00 %
12.11.2019 02:06 4,2 C 3,3 C 2,8 C 97 % 1003,3 hPa 0,0 l/m 0 min 0 min 0 W/m 16,1 km/h (3 Bft) 97,62 %
12.11.2019 02:08 4,2 C 3,3 C 2,8 C 97 % 1003,4 hPa 0,0 l/m 0 min 0 min 0 W/m 19,3 km/h (3 Bft) 100,00 %
12.11.2019 02:10 4,2 C 3,3 C 2,8 C 97 % 1003,4 hPa 0,0 l/m 0 min 0 min 0 W/m 25,7 km/h (4 Bft) 100,00 %
12.11.2019 02:12 4,2 C 3,3 C 2,8 C 97 % 1003,4 hPa 0,0 l/m 0 min 0 min 0 W/m 12,9 km/h (3 Bft) 97,92 %
12.11.2019 02:14 4,2 C 3,3 C 2,8 C 97 % 1003,4 hPa 0,0 l/m 0 min 0 min 0 W/m 12,9 km/h (3 Bft) 100,00 %
12.11.2019 02:16 4,2 C 3,3 C 2,8 C 97 % 1003,5 hPa 0,0 l/m 0 min 0 min 0 W/m 19,3 km/h (3 Bft) 95,74 %
12.11.2019 02:18 4,2 C 3,3 C 2,8 C 97 % 1003,4 hPa 0,0 l/m 0 min 0 min 0 W/m 12,9 km/h (3 Bft) 95,74 %
12.11.2019 02:20 4,1 C 3,3 C 2,8 C 97 % 1003,4 hPa 0,0 l/m 0 min 0 min 0 W/m 12,9 km/h (3 Bft) 97,83 %
12.11.2019 02:22 4,1 C 3,3 C 2,8 C 97 % 1003,5 hPa 0,0 l/m 0 min 0 min 0 W/m 12,9 km/h (3 Bft) 100,00 %
12.11.2019 02:24 4,1 C 3,3 C 2,8 C 97 % 1003,4 hPa 0,0 l/m 0 min 0 min 0 W/m 6,4 km/h (2 Bft) 100,00 %
12.11.2019 02:26 4,1 C 3,3 C 2,8 C 97 % 1003,4 hPa 0,0 l/m 0 min 0 min 0 W/m 12,9 km/h (3 Bft) 93,75 %
12.11.2019 02:28 4,1 C 3,3 C 2,8 C 97 % 1003,4 hPa 0,0 l/m 0 min 0 min 0 W/m 16,1 km/h (3 Bft) 97,87 %
12.11.2019 02:30 4,1 C 3,3 C 2,8 C 97 % 1003,5 hPa 0,0 l/m 0 min 0 min 0 W/m 19,3 km/h (3 Bft) 97,87 %
12.11.2019 02:32 4,1 C 3,3 C 2,8 C 97 % 1003,5 hPa 0,0 l/m 0 min 0 min 0 W/m 12,9 km/h (3 Bft) 95,74 %
12.11.2019 02:34 4,1 C 3,3 C 2,8 C 97 % 1003,5 hPa 0,0 l/m 0 min 0 min 0 W/m 12,9 km/h (3 Bft) 97,87 %
12.11.2019 02:36 4,1 C 3,3 C 2,8 C 97 % 1003,4 hPa 0,0 l/m 0 min 0 min 0 W/m 19,3 km/h (3 Bft) 97,87 %
12.11.2019 02:38 4,1 C 3,3 C 2,8 C 97 % 1003,4 hPa 0,0 l/m 0 min 0 min 0 W/m 12,9 km/h (3 Bft) 97,83 %
12.11.2019 02:40 4,1 C 3,3 C 2,8 C 97 % 1003,4 hPa 0,0 l/m 0 min 0 min 0 W/m 12,9 km/h (3 Bft) 97,62 %
12.11.2019 02:42 4,1 C 3,3 C 2,8 C 97 % 1003,4 hPa 0,0 l/m 0 min 0 min 0 W/m 16,1 km/h (3 Bft) 95,83 %
12.11.2019 02:44 4,1 C 3,3 C 2,8 C 97 % 1003,4 hPa 0,0 l/m 0 min 0 min 0 W/m 16,1 km/h (3 Bft) 97,87 %
12.11.2019 02:46 4,1 C 2,8 C 2,8 C 97 % 1003,3 hPa 0,0 l/m 0 min 0 min 0 W/m 22,5 km/h (4 Bft) 95,83 %
12.11.2019 02:48 4,1 C 2,8 C 2,2 C 97 % 1003,3 hPa 0,0 l/m 0 min 0 min 0 W/m 19,3 km/h (3 Bft) 97,92 %
12.11.2019 02:50 4,1 C 2,8 C 2,2 C 97 % 1003,3 hPa 0,0 l/m 0 min 0 min 0 W/m 12,9 km/h (3 Bft) 97,92 %
12.11.2019 02:52 4,1 C 2,8 C 2,2 C 97 % 1003,2 hPa 0,0 l/m 0 min 0 min 0 W/m 12,9 km/h (3 Bft) 97,87 %
12.11.2019 02:54 4,0 C 2,8 C 2,2 C 97 % 1003,2 hPa 0,0 l/m 0 min 0 min 0 W/m 12,9 km/h (3 Bft) 97,87 %
12.11.2019 02:56 4,0 C 2,8 C 2,2 C 97 % 1003,3 hPa 0,0 l/m 0 min 0 min 0 W/m 22,5 km/h (4 Bft) 97,87 %
12.11.2019 02:58 4,0 C 2,8 C 2,2 C 97 % 1003,3 hPa 0,0 l/m 0 min 0 min 0 W/m 12,9 km/h (3 Bft) 97,87 %
12.11.2019 03:00 3,9 C 2,8 C 2,2 C 97 % 1003,3 hPa 0,0 l/m 0 min 0 min 0 W/m 6,4 km/h (2 Bft) 97,87 %
12.11.2019 03:02 3,9 C 2,8 C 2,2 C 97 % 1003,3 hPa 0,0 l/m 0 min 0 min 0 W/m 12,9 km/h (3 Bft) 97,67 %
12.11.2019 03:04 3,9 C 2,8 C 2,2 C 97 % 1003,3 hPa 0,0 l/m 0 min 0 min 0 W/m 3,2 km/h (1 Bft) 97,87 %
12.11.2019 03:06 3,9 C 2,8 C 2,2 C 97 % 1003,2 hPa 0,0 l/m 0 min 0 min 0 W/m 6,4 km/h (2 Bft) 97,83 %
12.11.2019 03:08 3,9 C 2,8 C 2,2 C 97 % 1003,2 hPa 0,0 l/m 0 min 0 min 0 W/m 12,9 km/h (3 Bft) 95,74 %
12.11.2019 03:10 3,8 C 2,8 C 2,2 C 97 % 1003,2 hPa 0,0 l/m 0 min 0 min 0 W/m 12,9 km/h (3 Bft) 100,00 %
12.11.2019 03:12 3,8 C 2,8 C 2,2 C 97 % 1003,1 hPa 0,0 l/m 0 min 0 min 0 W/m 6,4 km/h (2 Bft) 100,00 %
12.11.2019 03:14 3,8 C 2,8 C 2,2 C 97 % 1003,2 hPa 0,0 l/m 0 min 0 min 0 W/m 6,4 km/h (2 Bft) 97,87 %
12.11.2019 03:16 3,8 C 2,8 C 2,2 C 97 % 1003,1 hPa 0,0 l/m 0 min 0 min 0 W/m 12,9 km/h (3 Bft) 100,00 %
12.11.2019 03:18 3,8 C 2,8 C 2,2 C 97 % 1003,1 hPa 0,0 l/m 0 min 0 min 0 W/m 16,1 km/h (3 Bft) 100,00 %
12.11.2019 03:20 3,8 C 2,8 C 2,2 C 97 % 1003,1 hPa 0,0 l/m 0 min 0 min 0 W/m 12,9 km/h (3 Bft) 100,00 %
12.11.2019 03:22 3,8 C 2,8 C 2,2 C 97 % 1003,1 hPa 0,0 l/m 0 min 0 min 0 W/m 12,9 km/h (3 Bft) 100,00 %
12.11.2019 03:24 3,7 C 2,8 C 2,2 C 97 % 1003,2 hPa 0,0 l/m 0 min 0 min 0 W/m 12,9 km/h (3 Bft) 100,00 %
12.11.2019 03:26 3,7 C 2,8 C 2,2 C 97 % 1003,2 hPa 0,0 l/m 0 min 0 min 0 W/m 16,1 km/h (3 Bft) 100,00 %
12.11.2019 03:28 3,7 C 2,8 C 2,2 C 97 % 1003,2 hPa 0,0 l/m 0 min 0 min 0 W/m 19,3 km/h (3 Bft) 100,00 %
12.11.2019 03:30 3,7 C 2,8 C 2,2 C 97 % 1003,2 hPa 0,0 l/m 0 min 0 min 0 W/m 12,9 km/h (3 Bft) 100,00 %
12.11.2019 03:32 3,7 C 2,8 C 2,2 C 97 % 1003,3 hPa 0,0 l/m 0 min 0 min 0 W/m 12,9 km/h (3 Bft) 100,00 %
12.11.2019 03:34 3,7 C 2,8 C 2,2 C 97 % 1003,2 hPa 0,0 l/m 0 min 0 min 0 W/m 12,9 km/h (3 Bft) 100,00 %
12.11.2019 03:36 3,7 C 2,8 C 2,2 C 97 % 1003,2 hPa 0,0 l/m 0 min 0 min 0 W/m 16,1 km/h (3 Bft) 95,65 %
12.11.2019 03:38 3,7 C 2,8 C 2,2 C 97 % 1003,3 hPa 0,0 l/m 0 min 0 min 0 W/m 16,1 km/h (3 Bft) 97,87 %
12.11.2019 03:40 3,7 C 2,8 C 2,2 C 97 % 1003,3 hPa 0,0 l/m 0 min 0 min 0 W/m 12,9 km/h (3 Bft) 100,00 %
12.11.2019 03:42 3,7 C 2,8 C 2,2 C 97 % 1003,3 hPa 0,0 l/m 0 min 0 min 0 W/m 12,9 km/h (3 Bft) 97,87 %
12.11.2019 03:44 3,7 C 2,8 C 2,2 C 97 % 1003,3 hPa 0,0 l/m 0 min 0 min 0 W/m 12,9 km/h (3 Bft) 95,74 %
12.11.2019 03:46 3,7 C 2,8 C 2,2 C 97 % 1003,3 hPa 0,0 l/m 0 min 0 min 0 W/m 16,1 km/h (3 Bft) 97,87 %
12.11.2019 03:48 3,7 C 2,8 C 2,2 C 97 % 1003,3 hPa 0,0 l/m 0 min 0 min 0 W/m 12,9 km/h (3 Bft) 97,83 %
12.11.2019 03:50 3,6 C 2,8 C 2,2 C 97 % 1003,3 hPa 0,0 l/m 0 min 0 min 0 W/m 9,7 km/h (2 Bft) 97,62 %
12.11.2019 03:52 3,6 C 2,8 C 2,2 C 97 % 1003,2 hPa 0,0 l/m 0 min 0 min 0 W/m 12,9 km/h (3 Bft) 97,92 %
12.11.2019 03:54 3,6 C 2,8 C 2,2 C 97 % 1003,3 hPa 0,0 l/m 0 min 0 min 0 W/m 12,9 km/h (3 Bft) 97,83 %
12.11.2019 03:56 3,6 C 2,8 C 2,2 C 97 % 1003,2 hPa 0,0 l/m 0 min 0 min 0 W/m 16,1 km/h (3 Bft) 97,87 %
12.11.2019 03:58 3,6 C 2,8 C 2,2 C 97 % 1003,1 hPa 0,0 l/m 0 min 0 min 0 W/m 12,9 km/h (3 Bft) 98,00 %
12.11.2019 04:00 3,6 C 2,8 C 2,2 C 97 % 1003,2 hPa 0,0 l/m 0 min 0 min 0 W/m 6,4 km/h (2 Bft) 97,87 %
12.11.2019 04:02 3,6 C 2,8 C 2,2 C 97 % 1003,2 hPa 0,0 l/m 0 min 0 min 0 W/m 16,1 km/h (3 Bft) 96,97 %
12.11.2019 04:04 3,6 C 2,8 C 2,2 C 97 % 1003,1 hPa 0,0 l/m 0 min 0 min 0 W/m 19,3 km/h (3 Bft) 97,87 %
12.11.2019 04:06 3,6 C 2,8 C 2,2 C 97 % 1003,1 hPa 0,0 l/m 0 min 0 min 0 W/m 16,1 km/h (3 Bft) 97,87 %
12.11.2019 04:08 3,6 C 2,8 C 2,2 C 97 % 1003,1 hPa 0,0 l/m 0 min 0 min 0 W/m 22,5 km/h (4 Bft) 97,87 %
12.11.2019 04:10 3,6 C 2,8 C 2,2 C 97 % 1003,2 hPa 0,0 l/m 0 min 0 min 0 W/m 12,9 km/h (3 Bft) 97,87 %
12.11.2019 04:12 3,6 C 2,8 C 2,2 C 97 % 1003,2 hPa 0,0 l/m 0 min 0 min 0 W/m 12,9 km/h (3 Bft) 95,65 %
12.11.2019 04:14 3,6 C 2,8 C 2,2 C 97 % 1003,2 hPa 0,0 l/m 0 min 0 min 0 W/m 16,1 km/h (3 Bft) 97,87 %
12.11.2019 04:16 3,6 C 2,8 C 2,2 C 97 % 1003,2 hPa 0,0 l/m 0 min 0 min 0 W/m 16,1 km/h (3 Bft) 97,87 %
12.11.2019 04:18 3,6 C 2,8 C 2,2 C 97 % 1003,2 hPa 0,0 l/m 0 min 0 min 0 W/m 16,1 km/h (3 Bft) 97,56 %
12.11.2019 04:20 3,6 C 2,8 C 2,2 C 97 % 1003,2 hPa 0,0 l/m 0 min 0 min 0 W/m 16,1 km/h (3 Bft) 97,92 %
12.11.2019 04:22 3,6 C 2,8 C 2,2 C 97 % 1003,3 hPa 0,0 l/m 0 min 0 min 0 W/m 16,1 km/h (3 Bft) 93,75 %
12.11.2019 04:24 3,6 C 2,8 C 2,2 C 97 % 1003,2 hPa 0,0 l/m 0 min 0 min 0 W/m 12,9 km/h (3 Bft) 97,92 %
12.11.2019 04:26 3,6 C 2,8 C 2,2 C 97 % 1003,1 hPa 0,0 l/m 0 min 0 min 0 W/m 16,1 km/h (3 Bft) 97,92 %
12.11.2019 04:28 3,6 C 2,8 C 2,2 C 97 % 1003,1 hPa 0,0 l/m 0 min 0 min 0 W/m 12,9 km/h (3 Bft) 97,87 %
12.11.2019 04:30 3,6 C 2,8 C 2,2 C 97 % 1003,1 hPa 0,0 l/m 0 min 0 min 0 W/m 16,1 km/h (3 Bft) 97,92 %
12.11.2019 04:32 3,6 C 2,8 C 2,2 C 97 % 1003,1 hPa 0,0 l/m 0 min 0 min 0 W/m 12,9 km/h (3 Bft) 100,00 %
12.11.2019 04:34 3,6 C 2,8 C 2,2 C 97 % 1003,1 hPa 0,0 l/m 0 min 0 min 0 W/m 12,9 km/h (3 Bft) 100,00 %
12.11.2019 04:36 3,6 C 2,8 C 2,2 C 97 % 1003,1 hPa 0,0 l/m 0 min 0 min 0 W/m 19,3 km/h (3 Bft) 97,87 %
12.11.2019 04:38 3,6 C 2,8 C 2,2 C 97 % 1003,1 hPa 0,0 l/m 0 min 0 min 0 W/m 12,9 km/h (3 Bft) 95,74 %
12.11.2019 04:40 3,6 C 2,8 C 2,2 C 97 % 1003,1 hPa 0,0 l/m 0 min 0 min 0 W/m 19,3 km/h (3 Bft) 100,00 %
12.11.2019 04:42 3,6 C 2,8 C 2,2 C 97 % 1003,0 hPa 0,0 l/m 0 min 0 min 0 W/m 12,9 km/h (3 Bft) 97,87 %
12.11.2019 04:44 3,6 C 2,8 C 2,2 C 97 % 1003,1 hPa 0,0 l/m 0 min 0 min 0 W/m 19,3 km/h (3 Bft) 97,87 %
12.11.2019 04:46 3,6 C 2,8 C 2,2 C 97 % 1003,0 hPa 0,0 l/m 0 min 0 min 0 W/m 16,1 km/h (3 Bft) 95,65 %
12.11.2019 04:48 3,6 C 2,8 C 2,2 C 97 % 1003,1 hPa 0,0 l/m 0 min 0 min 0 W/m 16,1 km/h (3 Bft) 93,62 %
12.11.2019 04:50 3,6 C 2,8 C 2,2 C 97 % 1003,1 hPa 0,0 l/m 0 min 0 min 0 W/m 12,9 km/h (3 Bft) 95,74 %
12.11.2019 04:52 3,6 C 2,8 C 2,2 C 97 % 1003,1 hPa 0,0 l/m 0 min 0 min 0 W/m 19,3 km/h (3 Bft) 95,74 %
12.11.2019 04:54 3,6 C 2,8 C 2,2 C 97 % 1003,1 hPa 0,0 l/m 0 min 0 min 0 W/m 12,9 km/h (3 Bft) 95,74 %
12.11.2019 04:56 3,6 C 2,8 C 2,2 C 97 % 1003,1 hPa 0,0 l/m 0 min 0 min 0 W/m 19,3 km/h (3 Bft) 95,74 %
12.11.2019 04:58 3,6 C 2,8 C 2,2 C 97 % 1003,1 hPa 0,0 l/m 0 min 0 min 0 W/m 12,9 km/h (3 Bft) 93,48 %
12.11.2019 05:00 3,7 C 2,8 C 2,2 C 97 % 1003,0 hPa 0,0 l/m 0 min 0 min 0 W/m 16,1 km/h (3 Bft) 95,74 %
12.11.2019 05:02 3,7 C 2,8 C 2,2 C 97 % 1003,1 hPa 0,0 l/m 0 min 0 min 0 W/m 16,1 km/h (3 Bft) 93,62 %
12.11.2019 05:04 3,7 C 2,8 C 2,2 C 97 % 1003,0 hPa 0,0 l/m 0 min 0 min 0 W/m 19,3 km/h (3 Bft) 95,74 %
12.11.2019 05:06 3,7 C 2,8 C 2,2 C 97 % 1003,0 hPa 0,0 l/m 0 min 0 min 0 W/m 16,1 km/h (3 Bft) 95,74 %
12.11.2019 05:08 3,7 C 2,8 C 2,2 C 97 % 1003,0 hPa 0,0 l/m 0 min 0 min 0 W/m 12,9 km/h (3 Bft) 95,12 %
12.11.2019 05:10 3,7 C 2,8 C 2,2 C 97 % 1002,9 hPa 0,0 l/m 0 min 0 min 0 W/m 16,1 km/h (3 Bft) 95,83 %
12.11.2019 05:12 3,7 C 3,3 C 2,2 C 97 % 1003,0 hPa 0,0 l/m 0 min 0 min 0 W/m 16,1 km/h (3 Bft) 93,75 %
12.11.2019 05:14 3,7 C 3,3 C 2,2 C 97 % 1002,9 hPa 0,0 l/m 0 min 0 min 0 W/m 19,3 km/h (3 Bft) 95,65 %
12.11.2019 05:16 3,7 C 3,3 C 2,2 C 97 % 1002,9 hPa 0,0 l/m 0 min 0 min 0 W/m 12,9 km/h (3 Bft) 95,83 %
12.11.2019 05:18 3,8 C 3,3 C 2,2 C 97 % 1002,9 hPa 0,0 l/m 0 min 0 min 0 W/m 12,9 km/h (3 Bft) 95,83 %
12.11.2019 05:20 3,8 C 2,8 C 2,2 C 97 % 1002,8 hPa 0,0 l/m 0 min 0 min 0 W/m 12,9 km/h (3 Bft) 95,83 %
12.11.2019 05:22 3,8 C 2,8 C 2,2 C 97 % 1002,8 hPa 0,0 l/m 0 min 0 min 0 W/m 16,1 km/h (3 Bft) 95,74 %
12.11.2019 05:24 3,8 C 2,8 C 2,2 C 97 % 1002,8 hPa 0,0 l/m 0 min 0 min 0 W/m 12,9 km/h (3 Bft) 95,74 %
12.11.2019 05:26 3,8 C 2,8 C 2,2 C 97 % 1002,8 hPa 0,0 l/m 0 min 0 min 0 W/m 16,1 km/h (3 Bft) 93,62 %
12.11.2019 05:28 3,8 C 3,3 C 2,2 C 97 % 1002,8 hPa 0,0 l/m 0 min 0 min 0 W/m 12,9 km/h (3 Bft) 93,62 %
12.11.2019 05:30 3,8 C 3,3 C 2,2 C 97 % 1002,8 hPa 0,0 l/m 0 min 0 min 0 W/m 19,3 km/h (3 Bft) 95,74 %
12.11.2019 05:32 3,8 C 3,3 C 2,2 C 97 % 1002,9 hPa 0,0 l/m 0 min 0 min 0 W/m 16,1 km/h (3 Bft) 97,83 %
12.11.2019 05:34 3,8 C 3,3 C 2,2 C 96 % 1002,9 hPa 0,0 l/m 0 min 0 min 0 W/m 16,1 km/h (3 Bft) 97,87 %
12.11.2019 05:36 3,8 C 3,3 C 2,8 C 96 % 1002,8 hPa 0,0 l/m 0 min 0 min 0 W/m 16,1 km/h (3 Bft) 97,87 %
12.11.2019 05:38 3,9 C 3,3 C 2,8 C 96 % 1002,8 hPa 0,0 l/m 0 min 0 min 0 W/m 16,1 km/h (3 Bft) 97,56 %
12.11.2019 05:40 3,9 C 3,3 C 2,8 C 96 % 1002,7 hPa 0,0 l/m 0 min 0 min 0 W/m 12,9 km/h (3 Bft) 97,87 %
12.11.2019 05:42 3,9 C 3,3 C 2,8 C 96 % 1002,8 hPa 0,0 l/m 0 min 0 min 0 W/m 16,1 km/h (3 Bft) 97,92 %
12.11.2019 05:44 3,9 C 3,3 C 2,8 C 97 % 1002,8 hPa 0,0 l/m 0 min 0 min 0 W/m 12,9 km/h (3 Bft) 97,87 %
12.11.2019 05:46 3,9 C 3,3 C 2,8 C 97 % 1002,8 hPa 0,0 l/m 0 min 0 min 0 W/m 12,9 km/h (3 Bft) 100,00 %
12.11.2019 05:48 3,9 C 3,3 C 2,8 C 97 % 1002,8 hPa 0,0 l/m 0 min 0 min 0 W/m 19,3 km/h (3 Bft) 100,00 %
12.11.2019 05:50 4,0 C 3,3 C 2,8 C 97 % 1002,8 hPa 0,0 l/m 0 min 0 min 0 W/m 12,9 km/h (3 Bft) 97,87 %
12.11.2019 05:52 4,0 C 3,3 C 2,8 C 97 % 1002,8 hPa 0,0 l/m 0 min 0 min 0 W/m 16,1 km/h (3 Bft) 100,00 %
12.11.2019 05:54 4,0 C 3,3 C 2,8 C 97 % 1002,9 hPa 0,0 l/m 0 min 0 min 0 W/m 16,1 km/h (3 Bft) 100,00 %
12.11.2019 05:56 4,1 C 3,3 C 2,8 C 97 % 1002,8 hPa 0,0 l/m 0 min 0 min 0 W/m 16,1 km/h (3 Bft) 100,00 %
12.11.2019 05:58 4,1 C 3,3 C 2,8 C 97 % 1002,8 hPa 0,0 l/m 0 min 0 min 0 W/m 16,1 km/h (3 Bft) 100,00 %
12.11.2019 06:00 4,1 C 3,3 C 2,8 C 97 % 1002,7 hPa 0,0 l/m 0 min 0 min 0 W/m 12,9 km/h (3 Bft) 97,87 %
12.11.2019 06:02 4,1 C 3,3 C 2,8 C 97 % 1002,7 hPa 0,0 l/m 0 min 0 min 0 W/m 16,1 km/h (3 Bft) 100,00 %
12.11.2019 06:04 4,2 C 3,3 C 2,8 C 96 % 1002,7 hPa 0,0 l/m 0 min 0 min 0 W/m 16,1 km/h (3 Bft) 100,00 %
12.11.2019 06:08 4,2 C 3,9 C 2,8 C 96 % 1002,8 hPa 0,0 l/m 0 min 0 min 0 W/m 16,1 km/h (3 Bft) 100,00 %
12.11.2019 06:10 4,2 C 3,9 C 2,8 C 96 % 1002,8 hPa 0,0 l/m 0 min 0 min 0 W/m 16,1 km/h (3 Bft) 100,00 %
12.11.2019 06:12 4,2 C 3,9 C 2,8 C 97 % 1002,7 hPa 0,0 l/m 0 min 0 min 0 W/m 19,3 km/h (3 Bft) 95,65 %
12.11.2019 06:14 4,3 C 3,9 C 2,8 C 97 % 1002,8 hPa 0,0 l/m 0 min 0 min 0 W/m 22,5 km/h (4 Bft) 100,00 %
12.11.2019 06:16 4,3 C 3,9 C 2,8 C 97 % 1002,7 hPa 0,0 l/m 0 min 2 min 0 W/m 22,5 km/h (4 Bft) 97,92 %
12.11.2019 06:18 4,3 C 3,3 C 2,8 C 96 % 1002,7 hPa 0,0 l/m 0 min 2 min 0 W/m 16,1 km/h (3 Bft) 97,92 %
12.11.2019 06:20 4,3 C 3,3 C 2,8 C 96 % 1002,6 hPa 0,0 l/m 0 min 2 min 0 W/m 12,9 km/h (3 Bft) 100,00 %
12.11.2019 06:22 4,3 C 3,3 C 2,8 C 96 % 1002,7 hPa 0,0 l/m 0 min 2 min 0 W/m 12,9 km/h (3 Bft) 97,92 %
12.11.2019 06:24 4,3 C 3,3 C 2,8 C 96 % 1002,6 hPa 0,0 l/m 0 min 2 min 0 W/m 12,9 km/h (3 Bft) 97,83 %
12.11.2019 06:26 4,4 C 3,3 C 2,8 C 96 % 1002,6 hPa 0,0 l/m 0 min 0 min 0 W/m 12,9 km/h (3 Bft) 100,00 %
12.11.2019 06:28 4,4 C 3,3 C 2,8 C 96 % 1002,6 hPa 0,0 l/m 0 min 0 min 0 W/m 12,9 km/h (3 Bft) 97,87 %
12.11.2019 06:30 4,4 C 3,3 C 2,8 C 96 % 1002,7 hPa 0,0 l/m 0 min 0 min 0 W/m 6,4 km/h (2 Bft) 97,83 %
12.11.2019 06:32 4,4 C 3,3 C 2,8 C 96 % 1002,6 hPa 0,0 l/m 0 min 0 min 0 W/m 6,4 km/h (2 Bft) 97,87 %
12.11.2019 06:34 4,4 C 3,3 C 2,8 C 96 % 1002,6 hPa 0,0 l/m 0 min 0 min 0 W/m 12,9 km/h (3 Bft) 97,87 %
12.11.2019 06:36 4,4 C 3,3 C 2,8 C 96 % 1002,6 hPa 0,0 l/m 0 min 0 min 0 W/m 12,9 km/h (3 Bft) 97,87 %
12.11.2019 06:38 4,4 C 3,3 C 2,8 C 96 % 1002,6 hPa 0,0 l/m 0 min 0 min 0 W/m 16,1 km/h (3 Bft) 95,74 %
12.11.2019 06:40 4,5 C 3,3 C 2,8 C 96 % 1002,6 hPa 0,0 l/m 0 min 0 min 0 W/m 12,9 km/h (3 Bft) 97,56 %
12.11.2019 06:42 4,5 C 3,3 C 2,8 C 96 % 1002,6 hPa 0,0 l/m 0 min 0 min 0 W/m 12,9 km/h (3 Bft) 97,92 %
12.11.2019 06:44 4,5 C 3,3 C 2,8 C 96 % 1002,6 hPa 0,0 l/m 0 min 0 min 0 W/m 16,1 km/h (3 Bft) 100,00 %
12.11.2019 06:46 4,5 C 3,3 C 2,8 C 96 % 1002,6 hPa 0,0 l/m 0 min 0 min 0 W/m 16,1 km/h (3 Bft) 95,83 %
12.11.2019 06:48 4,5 C 3,3 C 2,8 C 96 % 1002,6 hPa 0,0 l/m 0 min 0 min 0 W/m 12,9 km/h (3 Bft) 97,87 %
12.11.2019 06:50 4,5 C 3,3 C 2,8 C 96 % 1002,6 hPa 0,0 l/m 0 min 0 min 0 W/m 12,9 km/h (3 Bft) 97,92 %
12.11.2019 06:52 4,5 C 3,3 C 2,8 C 96 % 1002,5 hPa 0,0 l/m 0 min 0 min 0 W/m 6,4 km/h (2 Bft) 97,92 %
12.11.2019 06:54 4,5 C 3,3 C 2,8 C 96 % 1002,5 hPa 0,0 l/m 0 min 0 min 0 W/m 12,9 km/h (3 Bft) 97,87 %
12.11.2019 06:56 4,6 C 3,3 C 2,8 C 96 % 1002,5 hPa 0,0 l/m 0 min 0 min 0 W/m 12,9 km/h (3 Bft) 95,74 %
12.11.2019 06:58 4,6 C 3,9 C 2,8 C 96 % 1002,6 hPa 0,0 l/m 0 min 0 min 0 W/m 12,9 km/h (3 Bft) 97,87 %
12.11.2019 07:00 4,6 C 3,9 C 2,8 C 96 % 1002,6 hPa 0,0 l/m 0 min 0 min 0 W/m 16,1 km/h (3 Bft) 97,87 %
12.11.2019 07:02 4,6 C 3,9 C 2,8 C 96 % 1002,5 hPa 0,0 l/m 0 min 0 min 0 W/m 6,4 km/h (2 Bft) 92,68 %
12.11.2019 07:04 4,6 C 3,9 C 2,8 C 96 % 1002,5 hPa 0,0 l/m 0 min 0 min 0 W/m 12,9 km/h (3 Bft) 94,00 %
12.11.2019 07:06 4,6 C 3,9 C 2,8 C 95 % 1002,5 hPa 0,0 l/m 0 min 0 min 0 W/m 12,9 km/h (3 Bft) 95,83 %
12.11.2019 07:08 4,6 C 3,9 C 2,8 C 95 % 1002,5 hPa 0,0 l/m 0 min 0 min 0 W/m 12,9 km/h (3 Bft) 97,92 %
12.11.2019 07:10 4,6 C 3,9 C 2,8 C 95 % 1002,5 hPa 0,0 l/m 0 min 2 min 0 W/m 16,1 km/h (3 Bft) 97,87 %
12.11.2019 07:12 4,6 C 3,3 C 2,8 C 95 % 1002,5 hPa 0,0 l/m 0 min 2 min 0 W/m 16,1 km/h (3 Bft) 97,87 %
12.11.2019 07:14 4,6 C 3,3 C 2,8 C 95 % 1002,6 hPa 0,0 l/m 0 min 2 min 0 W/m 16,1 km/h (3 Bft) 93,62 %
12.11.2019 07:16 4,6 C 3,3 C 2,8 C 95 % 1002,6 hPa 0,2 l/m 0 min 2 min 0 W/m 6,4 km/h (2 Bft) 97,83 %
12.11.2019 07:18 4,6 C 3,3 C 2,8 C 95 % 1002,6 hPa 0,0 l/m 0 min 2 min 0 W/m 12,9 km/h (3 Bft) 97,87 %
12.11.2019 07:20 4,6 C 3,3 C 2,8 C 95 % 1002,7 hPa 0,0 l/m 0 min 2 min 0 W/m 3,2 km/h (1 Bft) 95,74 %
12.11.2019 07:22 4,6 C 3,3 C 2,8 C 95 % 1002,6 hPa 0,0 l/m 0 min 2 min 0 W/m 3,2 km/h (1 Bft) 97,87 %
12.11.2019 07:24 4,6 C 3,3 C 2,8 C 95 % 1002,6 hPa 0,0 l/m 0 min 2 min 0 W/m 6,4 km/h (2 Bft) 97,87 %
12.11.2019 07:26 4,6 C 3,3 C 2,8 C 95 % 1002,6 hPa 0,0 l/m 0 min 2 min 0 W/m 3,2 km/h (1 Bft) 97,87 %
12.11.2019 07:28 4,6 C 3,3 C 2,8 C 95 % 1002,6 hPa 0,2 l/m 0 min 2 min 0 W/m 6,4 km/h (2 Bft) 97,83 %
12.11.2019 07:30 4,6 C 3,3 C 2,8 C 95 % 1002,5 hPa 0,0 l/m 0 min 2 min 0 W/m 6,4 km/h (2 Bft) 95,74 %
12.11.2019 07:32 4,6 C 3,3 C 2,8 C 95 % 1002,5 hPa 0,0 l/m 0 min 2 min 0 W/m 6,4 km/h (2 Bft) 97,87 %
12.11.2019 07:34 4,6 C 3,3 C 2,8 C 95 % 1002,5 hPa 0,0 l/m 0 min 2 min 0 W/m 3,2 km/h (1 Bft) 97,87 %
12.11.2019 07:36 4,7 C 3,3 C 2,8 C 95 % 1002,5 hPa 0,0 l/m 0 min 2 min 0 W/m 16,1 km/h (3 Bft) 97,87 %
12.11.2019 07:38 4,7 C 3,3 C 2,8 C 95 % 1002,5 hPa 0,0 l/m 0 min 2 min 0 W/m 6,4 km/h (2 Bft) 54,35 %
12.11.2019 07:40 4,7 C 3,3 C 2,8 C 95 % 1002,6 hPa 0,0 l/m 0 min 2 min 0 W/m 3,2 km/h (1 Bft) 97,83 %
12.11.2019 07:42 4,7 C 3,3 C 2,8 C 95 % 1002,6 hPa 0,0 l/m 0 min 2 min 0 W/m 12,9 km/h (3 Bft) 97,87 %
12.11.2019 07:44 4,7 C 3,3 C 2,8 C 95 % 1002,6 hPa 0,2 l/m 0 min 2 min 0 W/m 12,9 km/h (3 Bft) 95,74 %
12.11.2019 07:46 4,7 C 3,3 C 2,8 C 95 % 1002,5 hPa 0,0 l/m 0 min 2 min 0 W/m 12,9 km/h (3 Bft) 100,00 %
12.11.2019 07:48 4,7 C 3,3 C 2,8 C 95 % 1002,5 hPa 0,0 l/m 0 min 2 min 0 W/m 12,9 km/h (3 Bft) 95,74 %
12.11.2019 07:50 4,7 C 3,3 C 2,8 C 95 % 1002,6 hPa 0,0 l/m 0 min 2 min 0 W/m 6,4 km/h (2 Bft) 97,92 %
12.11.2019 07:52 4,7 C 3,3 C 2,8 C 95 % 1002,6 hPa 0,0 l/m 0 min 2 min 0 W/m 6,4 km/h (2 Bft) 97,92 %
12.11.2019 07:54 4,7 C 3,3 C 2,8 C 95 % 1002,6 hPa 0,0 l/m 0 min 2 min 0 W/m 6,4 km/h (2 Bft) 97,92 %
12.11.2019 07:56 4,7 C 3,3 C 2,8 C 95 % 1002,6 hPa 0,0 l/m 0 min 2 min 0 W/m 9,7 km/h (2 Bft) 100,00 %
12.11.2019 07:58 4,7 C 3,3 C 2,8 C 95 % 1002,5 hPa 0,0 l/m 0 min 2 min 0 W/m 6,4 km/h (2 Bft) 100,00 %
12.11.2019 08:00 4,7 C 3,3 C 2,8 C 95 % 1002,6 hPa 0,0 l/m 0 min 0 min 0 W/m 12,9 km/h (3 Bft) 100,00 %
12.11.2019 08:02 4,6 C 3,3 C 2,8 C 95 % 1002,6 hPa 0,0 l/m 0 min 0 min 1 W/m 16,1 km/h (3 Bft) 100,00 %
12.11.2019 08:04 4,6 C 3,3 C 2,8 C 95 % 1002,5 hPa 0,0 l/m 0 min 0 min 5 W/m 6,4 km/h (2 Bft) 100,00 %
12.11.2019 08:06 4,6 C 3,3 C 2,8 C 95 % 1002,6 hPa 0,0 l/m 0 min 0 min 5 W/m 16,1 km/h (3 Bft) 95,74 %
12.11.2019 08:08 4,6 C 3,3 C 2,8 C 95 % 1002,5 hPa 0,0 l/m 0 min 0 min 5 W/m 12,9 km/h (3 Bft) 100,00 %
12.11.2019 08:10 4,6 C 3,3 C 2,8 C 95 % 1002,5 hPa 0,0 l/m 0 min 0 min 5 W/m 12,9 km/h (3 Bft) 100,00 %
12.11.2019 08:12 4,7 C 3,9 C 2,8 C 95 % 1002,5 hPa 0,0 l/m 0 min 0 min 7 W/m 12,9 km/h (3 Bft) 100,00 %
12.11.2019 08:14 4,7 C 3,3 C 2,8 C 95 % 1002,4 hPa 0,0 l/m 0 min 0 min 8 W/m 12,9 km/h (3 Bft) 100,00 %
12.11.2019 08:16 4,6 C 3,9 C 2,8 C 95 % 1002,4 hPa 0,0 l/m 0 min 0 min 9 W/m 12,9 km/h (3 Bft) 100,00 %
12.11.2019 08:18 4,6 C 3,9 C 3,3 C 95 % 1002,5 hPa 0,0 l/m 0 min 0 min 10 W/m 6,4 km/h (2 Bft) 100,00 %
12.11.2019 08:20 4,6 C 3,9 C 3,3 C 95 % 1002,4 hPa 0,0 l/m 0 min 0 min 11 W/m 16,1 km/h (3 Bft) 93,62 %
12.11.2019 08:22 4,7 C 3,9 C 3,3 C 95 % 1002,4 hPa 0,0 l/m 0 min 0 min 11 W/m 12,9 km/h (3 Bft) 95,83 %
12.11.2019 08:24 4,7 C 3,9 C 3,3 C 95 % 1002,4 hPa 0,0 l/m 0 min 0 min 11 W/m 12,9 km/h (3 Bft) 97,87 %
12.11.2019 08:26 4,7 C 3,9 C 3,3 C 95 % 1002,4 hPa 0,0 l/m 0 min 0 min 12 W/m 16,1 km/h (3 Bft) 97,87 %
12.11.2019 08:28 4,7 C 3,9 C 3,3 C 95 % 1002,4 hPa 0,0 l/m 0 min 0 min 15 W/m 16,1 km/h (3 Bft) 100,00 %
12.11.2019 08:30 4,7 C 3,9 C 3,3 C 95 % 1002,3 hPa 0,0 l/m 0 min 0 min 14 W/m 12,9 km/h (3 Bft) 97,83 %
12.11.2019 08:32 4,7 C 3,9 C 3,3 C 95 % 1002,4 hPa 0,0 l/m 0 min 0 min 14 W/m 12,9 km/h (3 Bft) 95,74 %
12.11.2019 08:34 4,7 C 3,9 C 3,3 C 95 % 1002,3 hPa 0,0 l/m 0 min 0 min 15 W/m 12,9 km/h (3 Bft) 93,62 %
12.11.2019 08:36 4,7 C 3,9 C 3,3 C 95 % 1002,3 hPa 0,0 l/m 0 min 0 min 14 W/m 12,9 km/h (3 Bft) 95,74 %
12.11.2019 08:38 4,7 C 3,9 C 3,3 C 95 % 1002,3 hPa 0,0 l/m 0 min 0 min 14 W/m 16,1 km/h (3 Bft) 97,87 %
12.11.2019 08:40 4,7 C 3,9 C 3,3 C 95 % 1002,3 hPa 0,0 l/m 0 min 0 min 14 W/m 16,1 km/h (3 Bft) 97,87 %
12.11.2019 08:42 4,7 C 3,9 C 3,3 C 95 % 1002,3 hPa 0,0 l/m 0 min 0 min 15 W/m 16,1 km/h (3 Bft) 97,87 %
12.11.2019 08:44 4,7 C 3,9 C 3,3 C 95 % 1002,3 hPa 0,0 l/m 0 min 0 min 14 W/m 12,9 km/h (3 Bft) 95,74 %
12.11.2019 08:46 4,7 C 3,9 C 3,3 C 95 % 1002,3 hPa 0,0 l/m 0 min 0 min 16 W/m 16,1 km/h (3 Bft) 97,87 %
12.11.2019 08:48 4,8 C 3,9 C 3,3 C 95 % 1002,2 hPa 0,0 l/m 0 min 0 min 14 W/m 12,9 km/h (3 Bft) 97,83 %
12.11.2019 08:50 4,8 C 3,9 C 3,3 C 95 % 1002,3 hPa 0,0 l/m 0 min 0 min 14 W/m 12,9 km/h (3 Bft) 97,87 %
12.11.2019 08:52 4,8 C 3,9 C 3,3 C 95 % 1002,3 hPa 0,0 l/m 0 min 0 min 14 W/m 6,4 km/h (2 Bft) 95,74 %
12.11.2019 08:54 4,8 C 3,9 C 3,3 C 95 % 1002,3 hPa 0,0 l/m 0 min 0 min 18 W/m 19,3 km/h (3 Bft) 97,87 %
12.11.2019 08:56 4,8 C 3,9 C 3,3 C 95 % 1002,3 hPa 0,0 l/m 0 min 0 min 21 W/m 16,1 km/h (3 Bft) 97,87 %
12.11.2019 08:58 4,8 C 3,9 C 3,3 C 95 % 1002,3 hPa 0,0 l/m 0 min 0 min 24 W/m 12,9 km/h (3 Bft) 93,62 %
12.11.2019 09:00 4,8 C 3,9 C 3,3 C 95 % 1002,2 hPa 0,0 l/m 0 min 0 min 30 W/m 16,1 km/h (3 Bft) 97,83 %
12.11.2019 09:02 4,8 C 3,9 C 3,3 C 95 % 1002,3 hPa 0,0 l/m 0 min 0 min 30 W/m 19,3 km/h (3 Bft) 95,74 %
12.11.2019 09:04 4,9 C 3,9 C 3,3 C 95 % 1002,2 hPa 0,0 l/m 0 min 0 min 28 W/m 16,1 km/h (3 Bft) 97,87 %
12.11.2019 09:06 4,9 C 3,9 C 3,3 C 95 % 1002,2 hPa 0,0 l/m 0 min 0 min 25 W/m 9,7 km/h (2 Bft) 97,87 %
12.11.2019 09:08 4,9 C 3,9 C 3,3 C 95 % 1002,2 hPa 0,0 l/m 0 min 0 min 20 W/m 12,9 km/h (3 Bft) 95,74 %
12.11.2019 09:10 4,9 C 3,9 C 3,3 C 95 % 1002,2 hPa 0,0 l/m 0 min 0 min 21 W/m 16,1 km/h (3 Bft) 93,62 %
12.11.2019 09:12 4,9 C 3,9 C 3,3 C 95 % 1002,2 hPa 0,0 l/m 0 min 0 min 24 W/m 6,4 km/h (2 Bft) 93,48 %
12.11.2019 09:14 4,9 C 3,9 C 3,3 C 95 % 1002,2 hPa 0,0 l/m 0 min 0 min 26 W/m 12,9 km/h (3 Bft) 93,62 %
12.11.2019 09:16 4,9 C 3,9 C 3,3 C 95 % 1002,2 hPa 0,0 l/m 0 min 0 min 27 W/m 19,3 km/h (3 Bft) 92,86 %
12.11.2019 09:18 4,9 C 4,4 C 3,3 C 95 % 1002,2 hPa 0,0 l/m 0 min 0 min 29 W/m 16,1 km/h (3 Bft) 95,74 %
12.11.2019 09:20 4,9 C 4,4 C 3,3 C 95 % 1002,2 hPa 0,0 l/m 0 min 0 min 28 W/m 16,1 km/h (3 Bft) 95,74 %
12.11.2019 09:22 5,0 C 4,4 C 3,3 C 95 % 1002,2 hPa 0,0 l/m 0 min 0 min 25 W/m 22,5 km/h (4 Bft) 97,87 %
12.11.2019 09:24 5,0 C 4,4 C 3,3 C 95 % 1002,2 hPa 0,0 l/m 0 min 0 min 23 W/m 19,3 km/h (3 Bft) 95,83 %
12.11.2019 09:26 5,0 C 4,4 C 3,3 C 95 % 1002,2 hPa 0,0 l/m 0 min 0 min 25 W/m 19,3 km/h (3 Bft) 97,92 %
12.11.2019 09:28 5,0 C 4,4 C 3,3 C 95 % 1002,2 hPa 0,0 l/m 0 min 0 min 28 W/m 19,3 km/h (3 Bft) 97,87 %
12.11.2019 09:30 5,1 C 4,4 C 3,3 C 95 % 1002,2 hPa 0,0 l/m 0 min 0 min 29 W/m 12,9 km/h (3 Bft) 93,75 %
12.11.2019 09:32 5,1 C 4,4 C 3,3 C 95 % 1002,2 hPa 0,0 l/m 0 min 0 min 29 W/m 16,1 km/h (3 Bft) 93,75 %
12.11.2019 09:34 5,1 C 4,4 C 3,3 C 95 % 1002,2 hPa 0,0 l/m 0 min 0 min 32 W/m 12,9 km/h (3 Bft) 93,62 %
12.11.2019 09:36 5,1 C 4,4 C 3,3 C 95 % 1002,2 hPa 0,0 l/m 0 min 0 min 35 W/m 19,3 km/h (3 Bft) 97,83 %
12.11.2019 09:38 5,1 C 4,4 C 3,3 C 95 % 1002,2 hPa 0,0 l/m 0 min 0 min 45 W/m 22,5 km/h (4 Bft) 95,74 %
12.11.2019 09:40 5,1 C 4,4 C 3,3 C 94 % 1002,2 hPa 0,0 l/m 0 min 0 min 50 W/m 25,7 km/h (4 Bft) 93,62 %
12.11.2019 09:42 5,1 C 4,4 C 3,3 C 94 % 1002,2 hPa 0,0 l/m 0 min 0 min 50 W/m 19,3 km/h (3 Bft) 95,74 %
12.11.2019 09:44 5,1 C 3,9 C 3,3 C 95 % 1002,2 hPa 0,0 l/m 0 min 2 min 50 W/m 22,5 km/h (4 Bft) 95,74 %
12.11.2019 09:46 5,1 C 3,9 C 3,3 C 94 % 1002,2 hPa 0,0 l/m 0 min 2 min 46 W/m 19,3 km/h (3 Bft) 95,65 %
12.11.2019 09:48 5,2 C 3,9 C 3,3 C 94 % 1002,2 hPa 0,0 l/m 0 min 2 min 43 W/m 16,1 km/h (3 Bft) 95,74 %
12.11.2019 09:50 5,2 C 3,9 C 3,3 C 94 % 1002,2 hPa 0,0 l/m 0 min 2 min 42 W/m 29,0 km/h (5 Bft) 95,83 %
12.11.2019 09:55 5,2 C 3,9 C 3,3 C 94 % 1002,1 hPa 0,0 l/m 0 min 5 min 36 W/m 25,7 km/h (4 Bft) 95,24 %
12.11.2019 09:56 5,2 C 3,9 C 3,3 C 94 % 1002,1 hPa 0,0 l/m 0 min 1 min 36 W/m 16,1 km/h (3 Bft) 95,83 %
12.11.2019 09:58 5,2 C 3,9 C 3,3 C 94 % 1002,1 hPa 0,0 l/m 0 min 2 min 37 W/m 19,3 km/h (3 Bft) 95,65 %
12.11.2019 10:00 5,2 C 3,9 C 3,3 C 94 % 1002,1 hPa 0,2 l/m 0 min 2 min 34 W/m 16,1 km/h (3 Bft) 93,62 %
12.11.2019 10:02 5,2 C 3,9 C 3,3 C 94 % 1002,1 hPa 0,0 l/m 0 min 2 min 37 W/m 12,9 km/h (3 Bft) 95,35 %
12.11.2019 10:04 5,2 C 3,9 C 3,3 C 94 % 1002,0 hPa 0,2 l/m 0 min 2 min 39 W/m 16,1 km/h (3 Bft) 97,83 %
12.11.2019 10:06 5,2 C 3,9 C 3,3 C 94 % 1002,0 hPa 0,0 l/m 0 min 2 min 40 W/m 16,1 km/h (3 Bft) 97,87 %
12.11.2019 10:08 5,2 C 3,9 C 3,3 C 94 % 1002,0 hPa 0,0 l/m 0 min 2 min 44 W/m 19,3 km/h (3 Bft) 97,87 %
12.11.2019 10:10 5,2 C 3,9 C 3,3 C 94 % 1002,0 hPa 0,0 l/m 0 min 2 min 48 W/m 12,9 km/h (3 Bft) 95,74 %
12.11.2019 10:12 5,2 C 3,9 C 3,3 C 94 % 1001,9 hPa 0,0 l/m 0 min 2 min 49 W/m 12,9 km/h (3 Bft) 97,87 %
12.11.2019 10:14 5,2 C 3,9 C 3,3 C 94 % 1001,9 hPa 0,2 l/m 0 min 2 min 50 W/m 12,9 km/h (3 Bft) 97,87 %
12.11.2019 10:16 5,2 C 3,9 C 3,3 C 94 % 1001,9 hPa 0,0 l/m 0 min 2 min 54 W/m 12,9 km/h (3 Bft) 97,83 %
12.11.2019 10:18 5,2 C 3,9 C 3,3 C 94 % 1001,8 hPa 0,2 l/m 0 min 2 min 65 W/m 19,3 km/h (3 Bft) 97,87 %
12.11.2019 10:20 5,2 C 3,9 C 3,3 C 94 % 1001,8 hPa 0,0 l/m 0 min 2 min 64 W/m 22,5 km/h (4 Bft) 97,87 %
12.11.2019 10:22 5,1 C 3,9 C 3,3 C 94 % 1001,8 hPa 0,0 l/m 0 min 2 min 59 W/m 16,1 km/h (3 Bft) 97,87 %
12.11.2019 10:24 5,1 C 3,9 C 3,3 C 94 % 1001,8 hPa 0,0 l/m 0 min 2 min 61 W/m 12,9 km/h (3 Bft) 100,00 %
12.11.2019 10:26 5,1 C 3,9 C 3,3 C 94 % 1001,8 hPa 0,0 l/m 0 min 2 min 67 W/m 6,4 km/h (2 Bft) 100,00 %
12.11.2019 10:28 5,1 C 3,9 C 3,3 C 94 % 1001,7 hPa 0,0 l/m 0 min 2 min 64 W/m 16,1 km/h (3 Bft) 100,00 %
12.11.2019 10:30 5,1 C 3,9 C 3,3 C 94 % 1001,8 hPa 0,0 l/m 0 min 2 min 65 W/m 12,9 km/h (3 Bft) 100,00 %
12.11.2019 10:32 5,1 C 3,9 C 3,3 C 95 % 1001,8 hPa 0,0 l/m 0 min 2 min 73 W/m 6,4 km/h (2 Bft) 100,00 %
12.11.2019 10:34 5,1 C 3,9 C 3,3 C 95 % 1001,8 hPa 0,0 l/m 0 min 2 min 75 W/m 16,1 km/h (3 Bft) 100,00 %
12.11.2019 10:36 5,1 C 3,9 C 3,3 C 95 % 1001,8 hPa 0,0 l/m 0 min 2 min 65 W/m 16,1 km/h (3 Bft) 97,87 %
12.11.2019 10:38 5,1 C 3,9 C 3,9 C 95 % 1001,8 hPa 0,0 l/m 0 min 2 min 54 W/m 6,4 km/h (2 Bft) 100,00 %
12.11.2019 10:40 5,1 C 3,9 C 3,3 C 95 % 1001,7 hPa 0,0 l/m 0 min 2 min 51 W/m 12,9 km/h (3 Bft) 97,87 %
12.11.2019 10:42 5,2 C 3,9 C 3,3 C 95 % 1001,8 hPa 0,2 l/m 0 min 2 min 54 W/m 12,9 km/h (3 Bft) 100,00 %
12.11.2019 10:44 5,2 C 3,9 C 3,3 C 95 % 1001,8 hPa 0,0 l/m 0 min 2 min 61 W/m 12,9 km/h (3 Bft) 100,00 %
12.11.2019 10:46 5,2 C 3,9 C 3,3 C 95 % 1001,8 hPa 0,0 l/m 0 min 2 min 62 W/m 12,9 km/h (3 Bft) 100,00 %
12.11.2019 10:48 5,2 C 3,9 C 3,9 C 95 % 1001,8 hPa 0,0 l/m 0 min 2 min 59 W/m 12,9 km/h (3 Bft) 97,87 %
12.11.2019 10:50 5,2 C 3,9 C 3,9 C 95 % 1001,8 hPa 0,0 l/m 0 min 2 min 57 W/m 16,1 km/h (3 Bft) 100,00 %
12.11.2019 10:52 5,2 C 3,9 C 3,9 C 95 % 1001,8 hPa 0,0 l/m 0 min 2 min 58 W/m 9,7 km/h (2 Bft) 100,00 %
12.11.2019 10:54 5,2 C 3,9 C 3,9 C 95 % 1001,8 hPa 0,0 l/m 0 min 2 min 57 W/m 19,3 km/h (3 Bft) 100,00 %
12.11.2019 10:56 5,2 C 3,9 C 3,9 C 95 % 1001,8 hPa 0,0 l/m 0 min 2 min 62 W/m 16,1 km/h (3 Bft) 100,00 %
12.11.2019 10:58 5,2 C 3,9 C 3,9 C 95 % 1001,8 hPa 0,2 l/m 0 min 2 min 59 W/m 16,1 km/h (3 Bft) 100,00 %
12.11.2019 11:00 5,2 C 3,9 C 3,9 C 95 % 1001,8 hPa 0,0 l/m 0 min 2 min 53 W/m 16,1 km/h (3 Bft) 100,00 %
12.11.2019 11:02 5,2 C 3,9 C 3,9 C 95 % 1001,8 hPa 0,0 l/m 0 min 2 min 48 W/m 9,7 km/h (2 Bft) 97,87 %
12.11.2019 11:04 5,2 C 3,9 C 3,9 C 95 % 1001,8 hPa 0,0 l/m 0 min 2 min 47 W/m 16,1 km/h (3 Bft) 100,00 %
12.11.2019 11:06 5,2 C 3,9 C 3,3 C 95 % 1001,8 hPa 0,0 l/m 0 min 2 min 46 W/m 16,1 km/h (3 Bft) 100,00 %
12.11.2019 11:08 5,2 C 3,9 C 3,9 C 96 % 1001,8 hPa 0,0 l/m 0 min 2 min 46 W/m 12,9 km/h (3 Bft) 100,00 %
12.11.2019 11:10 5,2 C 4,4 C 3,9 C 96 % 1001,8 hPa 0,0 l/m 0 min 2 min 47 W/m 6,4 km/h (2 Bft) 100,00 %
12.11.2019 11:12 5,2 C 3,9 C 3,9 C 96 % 1001,8 hPa 0,2 l/m 0 min 2 min 47 W/m 16,1 km/h (3 Bft) 100,00 %
12.11.2019 11:14 5,2 C 3,9 C 3,9 C 96 % 1001,8 hPa 0,0 l/m 0 min 2 min 46 W/m 16,1 km/h (3 Bft) 97,92 %
12.11.2019 11:16 5,2 C 3,9 C 3,9 C 96 % 1001,8 hPa 0,0 l/m 0 min 2 min 48 W/m 19,3 km/h (3 Bft) 100,00 %
12.11.2019 11:18 5,2 C 3,9 C 3,9 C 96 % 1001,8 hPa 0,2 l/m 0 min 2 min 45 W/m 12,9 km/h (3 Bft) 100,00 %
12.11.2019 11:20 5,2 C 3,9 C 3,9 C 96 % 1001,8 hPa 0,0 l/m 0 min 2 min 42 W/m 16,1 km/h (3 Bft) 100,00 %
12.11.2019 11:22 5,2 C 3,9 C 3,9 C 96 % 1001,8 hPa 0,0 l/m 0 min 2 min 36 W/m 16,1 km/h (3 Bft) 100,00 %
12.11.2019 11:24 5,2 C 3,9 C 3,9 C 96 % 1001,8 hPa 0,2 l/m 0 min 2 min 27 W/m 12,9 km/h (3 Bft) 100,00 %
12.11.2019 11:26 5,2 C 3,9 C 3,3 C 96 % 1001,8 hPa 0,0 l/m 0 min 2 min 25 W/m 12,9 km/h (3 Bft) 100,00 %
12.11.2019 11:28 5,2 C 3,9 C 3,9 C 96 % 1001,7 hPa 0,0 l/m 0 min 2 min 27 W/m 12,9 km/h (3 Bft) 100,00 %
12.11.2019 11:30 5,2 C 3,9 C 3,9 C 96 % 1001,7 hPa 0,0 l/m 0 min 2 min 26 W/m 12,9 km/h (3 Bft) 100,00 %
12.11.2019 11:32 5,2 C 3,9 C 3,3 C 96 % 1001,7 hPa 0,0 l/m 0 min 0 min 26 W/m 16,1 km/h (3 Bft) 100,00 %
12.11.2019 11:34 5,2 C 3,9 C 3,3 C 96 % 1001,7 hPa 0,0 l/m 0 min 2 min 26 W/m 19,3 km/h (3 Bft) 100,00 %
12.11.2019 11:36 5,2 C 3,9 C 3,3 C 96 % 1001,6 hPa 0,0 l/m 0 min 0 min 26 W/m 19,3 km/h (3 Bft) 100,00 %
12.11.2019 11:38 5,2 C 3,9 C 3,9 C 96 % 1001,6 hPa 0,0 l/m 0 min 0 min 30 W/m 19,3 km/h (3 Bft) 100,00 %
12.11.2019 11:40 5,2 C 4,4 C 3,9 C 96 % 1001,6 hPa 0,0 l/m 0 min 0 min 33 W/m 16,1 km/h (3 Bft) 100,00 %
12.11.2019 11:42 5,2 C 4,4 C 3,9 C 96 % 1001,6 hPa 0,0 l/m 0 min 0 min 36 W/m 19,3 km/h (3 Bft) 100,00 %
12.11.2019 11:44 5,2 C 4,4 C 3,9 C 96 % 1001,5 hPa 0,0 l/m 0 min 0 min 37 W/m 12,9 km/h (3 Bft) 97,87 %
12.11.2019 11:46 5,2 C 4,4 C 3,9 C 96 % 1001,6 hPa 0,0 l/m 0 min 0 min 31 W/m 19,3 km/h (3 Bft) 93,62 %
12.11.2019 11:48 5,2 C 4,4 C 3,9 C 96 % 1001,5 hPa 0,0 l/m 0 min 0 min 35 W/m 22,5 km/h (4 Bft) 95,74 %
12.11.2019 11:50 5,2 C 4,4 C 3,9 C 96 % 1001,6 hPa 0,0 l/m 0 min 0 min 40 W/m 22,5 km/h (4 Bft) 95,74 %
12.11.2019 11:52 5,2 C 4,4 C 3,9 C 96 % 1001,5 hPa 0,0 l/m 0 min 0 min 49 W/m 19,3 km/h (3 Bft) 93,62 %
12.11.2019 11:54 5,2 C 4,4 C 3,9 C 96 % 1001,5 hPa 0,0 l/m 0 min 0 min 56 W/m 22,5 km/h (4 Bft) 95,74 %
12.11.2019 11:56 5,2 C 5,0 C 3,9 C 96 % 1001,5 hPa 0,0 l/m 0 min 0 min 104 W/m 16,1 km/h (3 Bft) 93,48 %
12.11.2019 11:58 5,2 C 5,0 C 3,9 C 96 % 1001,5 hPa 0,0 l/m 0 min 0 min 114 W/m 25,7 km/h (4 Bft) 95,74 %
12.11.2019 12:00 5,3 C 5,0 C 3,9 C 96 % 1001,5 hPa 0,0 l/m 0 min 0 min 90 W/m 19,3 km/h (3 Bft) 95,74 %
12.11.2019 12:02 5,3 C 5,0 C 3,9 C 96 % 1001,5 hPa 0,0 l/m 0 min 0 min 75 W/m 22,5 km/h (4 Bft) 93,62 %
12.11.2019 12:04 5,3 C 5,0 C 3,9 C 96 % 1001,5 hPa 0,0 l/m 0 min 0 min 56 W/m 19,3 km/h (3 Bft) 95,74 %
12.11.2019 12:06 5,3 C 4,4 C 3,9 C 96 % 1001,5 hPa 0,0 l/m 0 min 0 min 53 W/m 32,2 km/h (5 Bft) 95,65 %
12.11.2019 12:08 5,3 C 4,4 C 3,9 C 96 % 1001,5 hPa 0,0 l/m 0 min 0 min 48 W/m 25,7 km/h (4 Bft) 93,62 %
12.11.2019 12:10 5,3 C 4,4 C 3,9 C 96 % 1001,4 hPa 0,0 l/m 0 min 0 min 60 W/m 19,3 km/h (3 Bft) 93,62 %
12.11.2019 12:12 5,3 C 5,0 C 3,9 C 96 % 1001,4 hPa 0,0 l/m 0 min 0 min 58 W/m 16,1 km/h (3 Bft) 95,74 %
12.11.2019 12:14 5,3 C 4,4 C 3,9 C 96 % 1001,4 hPa 0,0 l/m 0 min 0 min 37 W/m 19,3 km/h (3 Bft) 95,74 %
12.11.2019 12:16 5,3 C 4,4 C 3,9 C 96 % 1001,4 hPa 0,0 l/m 0 min 0 min 37 W/m 29,0 km/h (5 Bft) 91,49 %
12.11.2019 12:18 5,3 C 4,4 C 3,9 C 96 % 1001,4 hPa 0,0 l/m 0 min 0 min 48 W/m 19,3 km/h (3 Bft) 93,48 %
12.11.2019 12:20 5,4 C 5,0 C 3,9 C 96 % 1001,4 hPa 0,0 l/m 0 min 0 min 34 W/m 16,1 km/h (3 Bft) 91,49 %
12.11.2019 12:22 5,4 C 4,4 C 3,9 C 96 % 1001,4 hPa 0,0 l/m 0 min 0 min 33 W/m 16,1 km/h (3 Bft) 93,62 %
12.11.2019 12:24 5,4 C 4,4 C 3,9 C 96 % 1001,4 hPa 0,0 l/m 0 min 0 min 40 W/m 19,3 km/h (3 Bft) 93,62 %
12.11.2019 12:26 5,4 C 5,0 C 3,9 C 96 % 1001,4 hPa 0,0 l/m 0 min 0 min 43 W/m 16,1 km/h (3 Bft) 93,62 %
12.11.2019 12:28 5,4 C 5,0 C 3,9 C 96 % 1001,5 hPa 0,0 l/m 0 min 0 min 44 W/m 16,1 km/h (3 Bft) 95,74 %
12.11.2019 12:30 5,4 C 5,0 C 3,9 C 96 % 1001,4 hPa 0,0 l/m 0 min 0 min 42 W/m 25,7 km/h (4 Bft) 91,30 %
12.11.2019 12:32 5,4 C 5,0 C 3,9 C 96 % 1001,5 hPa 0,0 l/m 0 min 0 min 46 W/m 19,3 km/h (3 Bft) 95,74 %
12.11.2019 12:34 5,5 C 5,0 C 3,9 C 96 % 1001,5 hPa 0,0 l/m 0 min 0 min 42 W/m 19,3 km/h (3 Bft) 93,62 %
12.11.2019 12:36 5,5 C 5,0 C 3,9 C 96 % 1001,4 hPa 0,0 l/m 0 min 0 min 46 W/m 19,3 km/h (3 Bft) 95,74 %
12.11.2019 12:38 5,4 C 5,0 C 3,9 C 96 % 1001,5 hPa 0,0 l/m 0 min 0 min 54 W/m 19,3 km/h (3 Bft) 95,74 %
12.11.2019 12:40 5,4 C 5,0 C 3,9 C 96 % 1001,4 hPa 0,0 l/m 0 min 0 min 39 W/m 19,3 km/h (3 Bft) 95,74 %
12.11.2019 12:42 5,5 C 5,0 C 3,9 C 96 % 1001,4 hPa 0,0 l/m 0 min 0 min 41 W/m 16,1 km/h (3 Bft) 97,83 %
12.11.2019 12:44 5,5 C 5,0 C 3,9 C 96 % 1001,4 hPa 0,0 l/m 0 min 0 min 69 W/m 16,1 km/h (3 Bft) 95,74 %
12.11.2019 12:46 5,5 C 5,0 C 3,9 C 95 % 1001,4 hPa 0,0 l/m 0 min 0 min 70 W/m 38,6 km/h (5 Bft) 95,74 %
12.11.2019 12:48 5,5 C 5,6 C 3,9 C 95 % 1001,4 hPa 0,0 l/m 0 min 0 min 74 W/m 25,7 km/h (4 Bft) 93,62 %
12.11.2019 12:50 5,5 C 5,6 C 3,9 C 95 % 1001,4 hPa 0,0 l/m 0 min 0 min 72 W/m 29,0 km/h (5 Bft) 95,74 %
12.11.2019 12:52 5,6 C 5,6 C 3,9 C 95 % 1001,4 hPa 0,0 l/m 0 min 0 min 68 W/m 16,1 km/h (3 Bft) 97,56 %
12.11.2019 12:54 5,6 C 5,6 C 3,9 C 95 % 1001,4 hPa 0,0 l/m 0 min 0 min 68 W/m 38,6 km/h (5 Bft) 97,87 %
12.11.2019 12:56 5,6 C 5,6 C 3,9 C 95 % 1001,3 hPa 0,0 l/m 0 min 0 min 71 W/m 29,0 km/h (5 Bft) 100,00 %
12.11.2019 12:58 5,6 C 5,6 C 4,4 C 95 % 1001,4 hPa 0,0 l/m 0 min 0 min 85 W/m 22,5 km/h (4 Bft) 95,74 %
12.11.2019 13:00 5,6 C 5,6 C 4,4 C 95 % 1001,3 hPa 0,0 l/m 0 min 0 min 83 W/m 22,5 km/h (4 Bft) 100,00 %
12.11.2019 13:02 5,7 C 5,6 C 4,4 C 94 % 1001,3 hPa 0,0 l/m 0 min 0 min 64 W/m 22,5 km/h (4 Bft) 100,00 %
12.11.2019 13:04 5,7 C 5,6 C 4,4 C 94 % 1001,4 hPa 0,0 l/m 0 min 0 min 38 W/m 12,9 km/h (3 Bft) 100,00 %
12.11.2019 13:06 5,7 C 5,6 C 3,9 C 94 % 1001,4 hPa 0,0 l/m 0 min 0 min 29 W/m 12,9 km/h (3 Bft) 100,00 %
12.11.2019 13:08 5,7 C 5,6 C 3,9 C 94 % 1001,4 hPa 0,0 l/m 0 min 0 min 32 W/m 16,1 km/h (3 Bft) 100,00 %
12.11.2019 13:10 5,7 C 5,6 C 3,9 C 94 % 1001,4 hPa 0,0 l/m 0 min 0 min 39 W/m 29,0 km/h (5 Bft) 97,87 %
12.11.2019 13:12 5,7 C 5,6 C 3,9 C 94 % 1001,3 hPa 0,0 l/m 0 min 0 min 48 W/m 19,3 km/h (3 Bft) 100,00 %
12.11.2019 13:14 5,8 C 5,6 C 3,9 C 94 % 1001,3 hPa 0,0 l/m 0 min 0 min 61 W/m 12,9 km/h (3 Bft) 100,00 %
12.11.2019 13:16 5,8 C 5,6 C 4,4 C 94 % 1001,4 hPa 0,0 l/m 0 min 0 min 76 W/m 19,3 km/h (3 Bft) 100,00 %
12.11.2019 13:18 5,8 C 5,6 C 4,4 C 93 % 1001,4 hPa 0,0 l/m 0 min 0 min 71 W/m 22,5 km/h (4 Bft) 100,00 %
12.11.2019 13:20 5,8 C 5,6 C 4,4 C 93 % 1001,4 hPa 0,0 l/m 0 min 0 min 65 W/m 16,1 km/h (3 Bft) 100,00 %
12.11.2019 13:22 5,8 C 5,6 C 4,4 C 93 % 1001,4 hPa 0,0 l/m 0 min 0 min 63 W/m 19,3 km/h (3 Bft) 100,00 %
12.11.2019 13:24 5,8 C 5,6 C 4,4 C 93 % 1001,4 hPa 0,0 l/m 0 min 0 min 79 W/m 16,1 km/h (3 Bft) 100,00 %
12.11.2019 13:26 5,9 C 6,1 C 4,4 C 93 % 1001,4 hPa 0,0 l/m 0 min 0 min 79 W/m 16,1 km/h (3 Bft) 100,00 %
12.11.2019 13:28 5,9 C 5,6 C 4,4 C 93 % 1001,4 hPa 0,0 l/m 0 min 0 min 63 W/m 19,3 km/h (3 Bft) 100,00 %
12.11.2019 13:30 5,9 C 5,6 C 4,4 C 93 % 1001,4 hPa 0,0 l/m 0 min 0 min 71 W/m 19,3 km/h (3 Bft) 100,00 %
12.11.2019 13:32 5,9 C 5,6 C 4,4 C 93 % 1001,4 hPa 0,0 l/m 0 min 0 min 62 W/m 16,1 km/h (3 Bft) 97,92 %
12.11.2019 13:34 5,9 C 5,6 C 4,4 C 93 % 1001,4 hPa 0,0 l/m 0 min 0 min 53 W/m 16,1 km/h (3 Bft) 97,83 %
12.11.2019 13:36 5,9 C 5,6 C 4,4 C 93 % 1001,4 hPa 0,0 l/m 0 min 0 min 60 W/m 19,3 km/h (3 Bft) 100,00 %
12.11.2019 13:38 5,9 C 5,6 C 4,4 C 93 % 1001,4 hPa 0,0 l/m 0 min 0 min 59 W/m 19,3 km/h (3 Bft) 100,00 %
12.11.2019 13:40 6,0 C 5,6 C 4,4 C 93 % 1001,4 hPa 0,0 l/m 0 min 0 min 51 W/m 16,1 km/h (3 Bft) 100,00 %
12.11.2019 13:42 6,0 C 5,6 C 4,4 C 93 % 1001,4 hPa 0,0 l/m 0 min 0 min 52 W/m 16,1 km/h (3 Bft) 100,00 %
12.11.2019 13:44 6,0 C 5,6 C 4,4 C 92 % 1001,4 hPa 0,0 l/m 0 min 0 min 57 W/m 22,5 km/h (4 Bft) 100,00 %
12.11.2019 13:46 6,0 C 5,6 C 4,4 C 92 % 1001,4 hPa 0,0 l/m 0 min 0 min 56 W/m 16,1 km/h (3 Bft) 100,00 %
12.11.2019 13:48 6,0 C 5,6 C 4,4 C 92 % 1001,4 hPa 0,0 l/m 0 min 0 min 67 W/m 22,5 km/h (4 Bft) 100,00 %
12.11.2019 13:50 6,0 C 6,1 C 4,4 C 92 % 1001,3 hPa 0,0 l/m 0 min 0 min 67 W/m 19,3 km/h (3 Bft) 97,87 %
12.11.2019 13:52 6,1 C 6,1 C 4,4 C 92 % 1001,3 hPa 0,0 l/m 0 min 0 min 69 W/m 12,9 km/h (3 Bft) 100,00 %
12.11.2019 13:54 6,1 C 6,1 C 4,4 C 92 % 1001,3 hPa 0,0 l/m 0 min 0 min 76 W/m 16,1 km/h (3 Bft) 100,00 %
12.11.2019 13:56 6,1 C 6,1 C 4,4 C 92 % 1001,3 hPa 0,0 l/m 0 min 0 min 96 W/m 22,5 km/h (4 Bft) 100,00 %
12.11.2019 13:58 6,1 C 6,1 C 4,4 C 92 % 1001,3 hPa 0,0 l/m 0 min 0 min 115 W/m 16,1 km/h (3 Bft) 100,00 %
12.11.2019 14:00 6,1 C 6,1 C 4,4 C 92 % 1001,3 hPa 0,0 l/m 0 min 0 min 121 W/m 22,5 km/h (4 Bft) 100,00 %
12.11.2019 14:02 6,1 C 6,1 C 4,4 C 92 % 1001,3 hPa 0,0 l/m 0 min 0 min 110 W/m 19,3 km/h (3 Bft) 97,87 %
12.11.2019 14:04 6,2 C 6,1 C 4,4 C 91 % 1001,3 hPa 0,0 l/m 0 min 0 min 102 W/m 19,3 km/h (3 Bft) 97,56 %
12.11.2019 14:06 6,2 C 6,7 C 4,4 C 91 % 1001,3 hPa 0,0 l/m 0 min 0 min 122 W/m 19,3 km/h (3 Bft) 91,67 %
12.11.2019 14:08 6,2 C 6,7 C 4,4 C 92 % 1001,3 hPa 0,0 l/m 0 min 0 min 131 W/m 16,1 km/h (3 Bft) 100,00 %
12.11.2019 14:10 6,2 C 6,7 C 5,0 C 91 % 1001,3 hPa 0,0 l/m 0 min 0 min 121 W/m 16,1 km/h (3 Bft) 100,00 %
12.11.2019 14:12 6,3 C 6,7 C 4,4 C 91 % 1001,3 hPa 0,0 l/m 0 min 0 min 90 W/m 16,1 km/h (3 Bft) 97,92 %
12.11.2019 14:14 6,3 C 6,1 C 4,4 C 91 % 1001,2 hPa 0,0 l/m 0 min 0 min 69 W/m 16,1 km/h (3 Bft) 100,00 %
12.11.2019 14:16 6,3 C 6,1 C 4,4 C 91 % 1001,3 hPa 0,0 l/m 0 min 0 min 64 W/m 22,5 km/h (4 Bft) 100,00 %
12.11.2019 14:18 6,3 C 6,1 C 4,4 C 91 % 1001,2 hPa 0,0 l/m 0 min 0 min 73 W/m 19,3 km/h (3 Bft) 95,74 %
12.11.2019 14:20 6,3 C 6,1 C 5,0 C 91 % 1001,2 hPa 0,0 l/m 0 min 0 min 92 W/m 22,5 km/h (4 Bft) 95,65 %
12.11.2019 14:22 6,3 C 6,7 C 5,0 C 91 % 1001,1 hPa 0,0 l/m 0 min 0 min 106 W/m 22,5 km/h (4 Bft) 97,87 %
12.11.2019 14:24 6,3 C 6,7 C 5,6 C 91 % 1001,1 hPa 0,0 l/m 0 min 0 min 126 W/m 25,7 km/h (4 Bft) 95,74 %
12.11.2019 14:26 6,4 C 6,7 C 5,6 C 91 % 1001,1 hPa 0,0 l/m 0 min 0 min 134 W/m 22,5 km/h (4 Bft) 97,87 %
12.11.2019 14:28 6,4 C 7,8 C 5,6 C 91 % 1001,2 hPa 0,0 l/m 2 min 0 min 211 W/m 29,0 km/h (5 Bft) 95,83 %
12.11.2019 14:30 6,4 C 8,3 C 5,6 C 91 % 1001,1 hPa 0,0 l/m 2 min 0 min 334 W/m 25,7 km/h (4 Bft) 97,92 %
12.11.2019 14:32 6,5 C 9,4 C 6,1 C 91 % 1001,2 hPa 0,0 l/m 2 min 0 min 269 W/m 12,9 km/h (3 Bft) 97,83 %
12.11.2019 14:34 6,6 C 9,4 C 6,1 C 90 % 1001,2 hPa 0,0 l/m 2 min 0 min 333 W/m 16,1 km/h (3 Bft) 97,87 %
12.11.2019 14:36 6,7 C 8,9 C 6,1 C 90 % 1001,2 hPa 0,0 l/m 2 min 0 min 230 W/m 19,3 km/h (3 Bft) 95,83 %
12.11.2019 14:38 6,7 C 7,8 C 6,1 C 90 % 1001,2 hPa 0,0 l/m 2 min 0 min 217 W/m 22,5 km/h (4 Bft) 97,83 %
12.11.2019 14:40 6,7 C 7,2 C 5,6 C 90 % 1001,2 hPa 0,0 l/m 0 min 0 min 116 W/m 25,7 km/h (4 Bft) 97,87 %
12.11.2019 14:42 6,8 C 6,7 C 5,6 C 90 % 1001,2 hPa 0,0 l/m 0 min 0 min 91 W/m 32,2 km/h (5 Bft) 95,92 %
12.11.2019 14:44 6,8 C 6,7 C 5,6 C 89 % 1001,2 hPa 0,0 l/m 0 min 0 min 86 W/m 25,7 km/h (4 Bft) 93,62 %
12.11.2019 14:46 6,8 C 6,7 C 5,6 C 89 % 1001,2 hPa 0,0 l/m 0 min 0 min 96 W/m 19,3 km/h (3 Bft) 93,62 %
12.11.2019 14:48 6,8 C 6,7 C 5,6 C 89 % 1001,2 hPa 0,0 l/m 0 min 0 min 82 W/m 19,3 km/h (3 Bft) 95,74 %
12.11.2019 14:50 6,8 C 6,7 C 5,6 C 89 % 1001,2 hPa 0,0 l/m 0 min 0 min 74 W/m 29,0 km/h (5 Bft) 97,87 %
12.11.2019 14:52 6,8 C 6,7 C 5,0 C 89 % 1001,2 hPa 0,0 l/m 0 min 0 min 66 W/m 19,3 km/h (3 Bft) 95,74 %
12.11.2019 14:54 6,8 C 6,7 C 5,0 C 89 % 1001,2 hPa 0,0 l/m 0 min 0 min 80 W/m 16,1 km/h (3 Bft) 93,48 %
12.11.2019 14:56 6,8 C 6,7 C 5,0 C 88 % 1001,1 hPa 0,0 l/m 0 min 0 min 89 W/m 16,1 km/h (3 Bft) 93,62 %
12.11.2019 14:58 6,8 C 6,7 C 5,0 C 88 % 1001,0 hPa 0,0 l/m 0 min 0 min 87 W/m 12,9 km/h (3 Bft) 95,74 %
12.11.2019 15:00 6,7 C 6,7 C 5,6 C 88 % 1001,1 hPa 0,0 l/m 0 min 0 min 88 W/m 25,7 km/h (4 Bft) 97,87 %
12.11.2019 15:02 6,7 C 6,7 C 5,6 C 88 % 1001,0 hPa 0,0 l/m 0 min 0 min 89 W/m 22,5 km/h (4 Bft) 92,00 %
12.11.2019 15:04 6,7 C 6,7 C 5,6 C 88 % 1001,0 hPa 0,0 l/m 0 min 0 min 84 W/m 19,3 km/h (3 Bft) 93,75 %
12.11.2019 15:06 6,7 C 6,1 C 5,6 C 88 % 1001,0 hPa 0,0 l/m 0 min 0 min 73 W/m 25,7 km/h (4 Bft) 91,49 %
12.11.2019 15:08 6,7 C 6,1 C 5,6 C 88 % 1001,0 hPa 0,0 l/m 0 min 0 min 68 W/m 22,5 km/h (4 Bft) 95,74 %
12.11.2019 15:10 6,7 C 6,1 C 5,6 C 87 % 1000,9 hPa 0,0 l/m 0 min 0 min 59 W/m 25,7 km/h (4 Bft) 95,65 %
12.11.2019 15:12 6,6 C 6,1 C 5,6 C 87 % 1000,9 hPa 0,0 l/m 0 min 0 min 60 W/m 22,5 km/h (4 Bft) 95,74 %
12.11.2019 15:14 6,6 C 6,1 C 5,6 C 87 % 1000,9 hPa 0,0 l/m 0 min 0 min 58 W/m 35,4 km/h (5 Bft) 95,74 %
12.11.2019 15:16 6,6 C 6,1 C 5,6 C 87 % 1001,0 hPa 0,0 l/m 0 min 0 min 69 W/m 22,5 km/h (4 Bft) 95,74 %
12.11.2019 15:18 6,6 C 6,7 C 5,6 C 87 % 1001,0 hPa 0,0 l/m 2 min 0 min 96 W/m 22,5 km/h (4 Bft) 93,62 %
12.11.2019 15:20 6,6 C 6,7 C 5,6 C 87 % 1000,9 hPa 0,0 l/m 2 min 0 min 100 W/m 12,9 km/h (3 Bft) 95,74 %
12.11.2019 15:22 6,6 C 6,7 C 5,6 C 87 % 1001,0 hPa 0,0 l/m 2 min 0 min 103 W/m 25,7 km/h (4 Bft) 95,65 %
12.11.2019 15:24 6,6 C 6,7 C 5,6 C 87 % 1001,0 hPa 0,0 l/m 2 min 0 min 105 W/m 25,7 km/h (4 Bft) 95,24 %
12.11.2019 15:26 6,6 C 6,7 C 5,6 C 87 % 1001,0 hPa 0,0 l/m 2 min 0 min 86 W/m 16,1 km/h (3 Bft) 95,83 %
12.11.2019 15:28 6,6 C 6,7 C 5,6 C 87 % 1001,0 hPa 0,0 l/m 0 min 0 min 73 W/m 22,5 km/h (4 Bft) 95,74 %
12.11.2019 15:30 6,7 C 6,7 C 5,6 C 86 % 1001,1 hPa 0,0 l/m 0 min 0 min 62 W/m 19,3 km/h (3 Bft) 95,83 %
12.11.2019 15:32 6,6 C 6,1 C 5,6 C 86 % 1001,1 hPa 0,0 l/m 0 min 0 min 56 W/m 25,7 km/h (4 Bft) 93,75 %
12.11.2019 15:34 6,7 C 6,1 C 5,6 C 86 % 1001,1 hPa 0,0 l/m 0 min 0 min 49 W/m 16,1 km/h (3 Bft) 95,74 %
12.11.2019 15:36 6,7 C 6,1 C 5,6 C 86 % 1001,2 hPa 0,0 l/m 0 min 0 min 45 W/m 29,0 km/h (5 Bft) 95,74 %
12.11.2019 15:38 6,6 C 6,1 C 5,6 C 86 % 1001,1 hPa 0,0 l/m 0 min 0 min 41 W/m 19,3 km/h (3 Bft) 93,62 %
12.11.2019 15:40 6,6 C 6,1 C 5,6 C 86 % 1001,2 hPa 0,0 l/m 0 min 0 min 46 W/m 25,7 km/h (4 Bft) 95,65 %
12.11.2019 15:42 6,6 C 6,1 C 5,0 C 85 % 1001,2 hPa 0,0 l/m 0 min 0 min 38 W/m 16,1 km/h (3 Bft) 95,74 %
12.11.2019 15:44 6,6 C 6,1 C 5,0 C 85 % 1001,2 hPa 0,0 l/m 0 min 0 min 42 W/m 19,3 km/h (3 Bft) 97,87 %
12.11.2019 15:46 6,6 C 6,1 C 5,0 C 85 % 1001,2 hPa 0,0 l/m 0 min 0 min 46 W/m 12,9 km/h (3 Bft) 100,00 %
12.11.2019 15:48 6,6 C 6,1 C 5,0 C 85 % 1001,3 hPa 0,0 l/m 0 min 0 min 32 W/m 16,1 km/h (3 Bft) 100,00 %
12.11.2019 15:50 6,6 C 6,1 C 5,0 C 85 % 1001,3 hPa 0,0 l/m 0 min 0 min 33 W/m 22,5 km/h (4 Bft) 100,00 %
12.11.2019 15:52 6,6 C 6,1 C 5,0 C 85 % 1001,3 hPa 0,0 l/m 0 min 0 min 44 W/m 19,3 km/h (3 Bft) 100,00 %
12.11.2019 15:54 6,6 C 6,1 C 5,0 C 85 % 1001,3 hPa 0,0 l/m 0 min 0 min 43 W/m 19,3 km/h (3 Bft) 97,87 %
12.11.2019 15:56 6,6 C 6,1 C 5,0 C 85 % 1001,2 hPa 0,0 l/m 0 min 0 min 53 W/m 16,1 km/h (3 Bft) 95,74 %
12.11.2019 15:58 6,6 C 6,1 C 5,6 C 85 % 1001,3 hPa 0,0 l/m 2 min 0 min 64 W/m 19,3 km/h (3 Bft) 100,00 %
12.11.2019 16:00 6,6 C 6,1 C 5,6 C 85 % 1001,3 hPa 0,0 l/m 2 min 0 min 60 W/m 19,3 km/h (3 Bft) 100,00 %
12.11.2019 16:02 6,6 C 6,1 C 5,6 C 85 % 1001,3 hPa 0,0 l/m 2 min 0 min 51 W/m 19,3 km/h (3 Bft) 100,00 %
12.11.2019 16:04 6,6 C 6,1 C 5,6 C 85 % 1001,3 hPa 0,0 l/m 0 min 0 min 42 W/m 22,5 km/h (4 Bft) 97,87 %
12.11.2019 16:06 6,6 C 6,1 C 5,6 C 85 % 1001,3 hPa 0,0 l/m 0 min 0 min 35 W/m 25,7 km/h (4 Bft) 100,00 %
12.11.2019 16:08 6,5 C 6,1 C 5,6 C 85 % 1001,3 hPa 0,0 l/m 0 min 0 min 31 W/m 35,4 km/h (5 Bft) 97,92 %
12.11.2019 16:10 6,5 C 6,1 C 5,6 C 84 % 1001,3 hPa 0,0 l/m 0 min 0 min 30 W/m 19,3 km/h (3 Bft) 100,00 %
12.11.2019 16:12 6,5 C 6,1 C 5,0 C 84 % 1001,2 hPa 0,0 l/m 0 min 0 min 28 W/m 22,5 km/h (4 Bft) 100,00 %
12.11.2019 16:14 6,5 C 6,1 C 5,0 C 84 % 1001,2 hPa 0,0 l/m 0 min 0 min 27 W/m 16,1 km/h (3 Bft) 100,00 %
12.11.2019 16:16 6,5 C 5,6 C 5,0 C 84 % 1001,3 hPa 0,0 l/m 0 min 0 min 26 W/m 19,3 km/h (3 Bft) 97,87 %
12.11.2019 16:18 6,5 C 5,6 C 5,0 C 84 % 1001,3 hPa 0,0 l/m 0 min 0 min 25 W/m 22,5 km/h (4 Bft) 100,00 %
12.11.2019 16:20 6,5 C 5,6 C 5,0 C 84 % 1001,3 hPa 0,0 l/m 0 min 0 min 23 W/m 16,1 km/h (3 Bft) 100,00 %
12.11.2019 16:22 6,5 C 5,6 C 5,0 C 84 % 1001,3 hPa 0,0 l/m 0 min 0 min 22 W/m 25,7 km/h (4 Bft) 100,00 %
12.11.2019 16:24 6,4 C 5,6 C 5,0 C 84 % 1001,3 hPa 0,0 l/m 0 min 0 min 20 W/m 19,3 km/h (3 Bft) 97,87 %
12.11.2019 16:26 6,4 C 5,6 C 5,0 C 84 % 1001,4 hPa 0,0 l/m 0 min 0 min 19 W/m 19,3 km/h (3 Bft) 100,00 %
12.11.2019 16:28 6,4 C 5,6 C 5,0 C 84 % 1001,3 hPa 0,0 l/m 0 min 0 min 18 W/m 16,1 km/h (3 Bft) 100,00 %
12.11.2019 16:30 6,4 C 5,6 C 4,4 C 84 % 1001,3 hPa 0,0 l/m 0 min 0 min 16 W/m 12,9 km/h (3 Bft) 55,56 %
12.11.2019 16:32 6,4 C 5,6 C 4,4 C 84 % 1001,3 hPa 0,0 l/m 0 min 0 min 15 W/m 16,1 km/h (3 Bft) 97,44 %
12.11.2019 16:34 6,3 C 5,6 C 4,4 C 84 % 1001,4 hPa 0,0 l/m 0 min 0 min 14 W/m 29,0 km/h (5 Bft) 100,00 %
12.11.2019 16:36 6,3 C 5,6 C 4,4 C 84 % 1001,4 hPa 0,0 l/m 0 min 0 min 12 W/m 19,3 km/h (3 Bft) 100,00 %
12.11.2019 16:38 6,3 C 5,6 C 4,4 C 85 % 1001,4 hPa 0,0 l/m 0 min 0 min 12 W/m 12,9 km/h (3 Bft) 100,00 %
12.11.2019 16:40 6,3 C 5,0 C 4,4 C 85 % 1001,4 hPa 0,0 l/m 0 min 0 min 11 W/m 12,9 km/h (3 Bft) 100,00 %
12.11.2019 16:42 6,3 C 5,6 C 4,4 C 85 % 1001,4 hPa 0,0 l/m 0 min 0 min 11 W/m 16,1 km/h (3 Bft) 100,00 %
12.11.2019 16:44 6,2 C 5,0 C 4,4 C 85 % 1001,4 hPa 0,0 l/m 0 min 0 min 9 W/m 6,4 km/h (2 Bft) 95,65 %
12.11.2019 16:46 6,2 C 5,0 C 4,4 C 85 % 1001,5 hPa 0,0 l/m 0 min 0 min 8 W/m 6,4 km/h (2 Bft) 97,87 %
12.11.2019 16:48 6,2 C 5,0 C 4,4 C 85 % 1001,5 hPa 0,0 l/m 0 min 0 min 7 W/m 12,9 km/h (3 Bft) 97,87 %
12.11.2019 16:50 6,2 C 5,0 C 4,4 C 85 % 1001,5 hPa 0,0 l/m 0 min 0 min 5 W/m 6,4 km/h (2 Bft) 97,87 %
12.11.2019 16:52 6,2 C 5,0 C 3,9 C 85 % 1001,5 hPa 0,0 l/m 0 min 0 min 5 W/m 12,9 km/h (3 Bft) 97,87 %
12.11.2019 16:54 6,1 C 4,4 C 3,9 C 85 % 1001,5 hPa 0,0 l/m 0 min 0 min 5 W/m 6,4 km/h (2 Bft) 97,87 %
12.11.2019 16:56 6,1 C 4,4 C 3,9 C 86 % 1001,5 hPa 0,0 l/m 0 min 0 min 0 W/m 6,4 km/h (2 Bft) 97,83 %
12.11.2019 16:58 6,1 C 4,4 C 3,9 C 86 % 1001,5 hPa 0,0 l/m 0 min 0 min 0 W/m 12,9 km/h (3 Bft) 97,87 %
12.11.2019 17:00 6,1 C 4,4 C 3,9 C 86 % 1001,5 hPa 0,0 l/m 0 min 0 min 0 W/m 12,9 km/h (3 Bft) 97,87 %
12.11.2019 17:02 6,0 C 4,4 C 3,9 C 86 % 1001,5 hPa 0,0 l/m 0 min 0 min 0 W/m 12,9 km/h (3 Bft) 97,67 %
12.11.2019 17:04 6,0 C 4,4 C 3,9 C 86 % 1001,5 hPa 0,0 l/m 0 min 0 min 0 W/m 16,1 km/h (3 Bft) 96,00 %
12.11.2019 17:06 5,9 C 4,4 C 3,9 C 86 % 1001,5 hPa 0,0 l/m 0 min 0 min 0 W/m 12,9 km/h (3 Bft) 95,74 %
12.11.2019 17:08 5,9 C 4,4 C 3,9 C 87 % 1001,5 hPa 0,0 l/m 0 min 0 min 0 W/m 6,4 km/h (2 Bft) 97,87 %
12.11.2019 17:10 5,8 C 4,4 C 3,9 C 87 % 1001,6 hPa 0,0 l/m 0 min 0 min 0 W/m 12,9 km/h (3 Bft) 95,74 %
12.11.2019 17:12 5,8 C 4,4 C 3,9 C 87 % 1001,6 hPa 0,0 l/m 0 min 0 min 0 W/m 6,4 km/h (2 Bft) 95,65 %
12.11.2019 17:14 5,8 C 4,4 C 3,9 C 87 % 1001,6 hPa 0,0 l/m 0 min 0 min 0 W/m 12,9 km/h (3 Bft) 95,74 %
12.11.2019 17:16 5,7 C 4,4 C 3,9 C 87 % 1001,7 hPa 0,0 l/m 0 min 0 min 0 W/m 12,9 km/h (3 Bft) 97,87 %
12.11.2019 17:18 5,7 C 4,4 C 3,9 C 87 % 1001,7 hPa 0,0 l/m 0 min 0 min 0 W/m 12,9 km/h (3 Bft) 95,74 %
12.11.2019 17:20 5,6 C 4,4 C 3,9 C 87 % 1001,7 hPa 0,0 l/m 0 min 0 min 0 W/m 12,9 km/h (3 Bft) 93,62 %
12.11.2019 17:22 5,6 C 4,4 C 3,9 C 87 % 1001,7 hPa 0,0 l/m 0 min 0 min 0 W/m 16,1 km/h (3 Bft) 95,74 %
12.11.2019 17:24 5,6 C 4,4 C 3,9 C 88 % 1001,7 hPa 0,0 l/m 0 min 0 min 0 W/m 12,9 km/h (3 Bft) 95,65 %
12.11.2019 17:26 5,6 C 4,4 C 3,9 C 88 % 1001,7 hPa 0,0 l/m 0 min 0 min 0 W/m 12,9 km/h (3 Bft) 97,87 %
12.11.2019 17:28 5,5 C 4,4 C 3,9 C 88 % 1001,7 hPa 0,0 l/m 0 min 0 min 0 W/m 12,9 km/h (3 Bft) 95,74 %
12.11.2019 17:30 5,4 C 4,4 C 3,9 C 88 % 1001,7 hPa 0,0 l/m 0 min 0 min 0 W/m 16,1 km/h (3 Bft) 95,74 %
12.11.2019 17:32 5,4 C 3,9 C 3,9 C 88 % 1001,7 hPa 0,0 l/m 0 min 0 min 0 W/m 6,4 km/h (2 Bft) 95,74 %
12.11.2019 17:34 5,4 C 3,9 C 3,3 C 88 % 1001,7 hPa 0,0 l/m 0 min 0 min 0 W/m 12,9 km/h (3 Bft) 95,65 %
12.11.2019 17:36 5,4 C 3,9 C 3,3 C 89 % 1001,7 hPa 0,0 l/m 0 min 0 min 0 W/m 12,9 km/h (3 Bft) 97,92 %
12.11.2019 17:38 5,3 C 3,9 C 3,3 C 89 % 1001,7 hPa 0,0 l/m 0 min 0 min 0 W/m 12,9 km/h (3 Bft) 95,74 %
12.11.2019 17:40 5,3 C 3,9 C 3,3 C 89 % 1001,7 hPa 0,0 l/m 0 min 0 min 0 W/m 12,9 km/h (3 Bft) 95,74 %
12.11.2019 17:42 5,3 C 3,9 C 3,3 C 89 % 1001,7 hPa 0,0 l/m 0 min 0 min 0 W/m 12,9 km/h (3 Bft) 97,83 %
12.11.2019 17:44 5,2 C 3,9 C 3,3 C 89 % 1001,7 hPa 0,0 l/m 0 min 0 min 0 W/m 6,4 km/h (2 Bft) 95,74 %
12.11.2019 17:46 5,2 C 3,9 C 3,3 C 89 % 1001,7 hPa 0,0 l/m 0 min 0 min 0 W/m 6,4 km/h (2 Bft) 95,74 %
12.11.2019 17:48 5,2 C 3,9 C 3,3 C 89 % 1001,7 hPa 0,0 l/m 0 min 0 min 0 W/m 12,9 km/h (3 Bft) 97,87 %
12.11.2019 17:50 5,2 C 3,9 C 3,3 C 89 % 1001,7 hPa 0,0 l/m 0 min 0 min 0 W/m 6,4 km/h (2 Bft) 97,96 %
12.11.2019 17:52 5,1 C 3,9 C 3,3 C 89 % 1001,7 hPa 0,0 l/m 0 min 0 min 0 W/m 6,4 km/h (2 Bft) 95,74 %
12.11.2019 17:54 5,1 C 3,9 C 3,3 C 89 % 1001,7 hPa 0,0 l/m 0 min 0 min 0 W/m 6,4 km/h (2 Bft) 97,83 %
12.11.2019 17:56 5,1 C 3,9 C 3,3 C 89 % 1001,7 hPa 0,0 l/m 0 min 0 min 0 W/m 16,1 km/h (3 Bft) 97,87 %
12.11.2019 17:58 5,0 C 3,9 C 3,3 C 89 % 1001,6 hPa 0,0 l/m 0 min 0 min 0 W/m 9,7 km/h (2 Bft) 97,67 %
12.11.2019 18:00 4,9 C 3,9 C 3,3 C 90 % 1001,6 hPa 0,0 l/m 0 min 0 min 0 W/m 12,9 km/h (3 Bft) 95,83 %
12.11.2019 18:02 4,9 C 3,9 C 3,3 C 89 % 1001,6 hPa 0,0 l/m 0 min 0 min 0 W/m 16,1 km/h (3 Bft) 98,00 %
12.11.2019 18:04 4,9 C 3,9 C 3,3 C 90 % 1001,6 hPa 0,0 l/m 0 min 0 min 0 W/m 12,9 km/h (3 Bft) 100,00 %
12.11.2019 18:08 4,8 C 3,3 C 3,3 C 90 % 1001,7 hPa 0,0 l/m 0 min 0 min 0 W/m 12,9 km/h (3 Bft) 100,00 %
12.11.2019 18:10 4,8 C 3,9 C 3,3 C 90 % 1001,7 hPa 0,0 l/m 0 min 0 min 0 W/m 6,4 km/h (2 Bft) 100,00 %
12.11.2019 18:12 4,8 C 3,3 C 3,3 C 90 % 1001,7 hPa 0,0 l/m 0 min 0 min 0 W/m 19,3 km/h (3 Bft) 97,87 %
12.11.2019 18:14 4,7 C 3,3 C 3,3 C 90 % 1001,7 hPa 0,0 l/m 0 min 0 min 0 W/m 12,9 km/h (3 Bft) 95,74 %
12.11.2019 18:16 4,7 C 3,3 C 2,8 C 90 % 1001,6 hPa 0,0 l/m 0 min 0 min 0 W/m 6,4 km/h (2 Bft) 97,87 %
12.11.2019 18:18 4,7 C 3,3 C 2,8 C 90 % 1001,7 hPa 0,0 l/m 0 min 0 min 0 W/m 12,9 km/h (3 Bft) 97,83 %
12.11.2019 18:20 4,6 C 3,3 C 3,3 C 90 % 1001,7 hPa 0,0 l/m 0 min 0 min 0 W/m 6,4 km/h (2 Bft) 97,87 %
12.11.2019 18:22 4,6 C 3,3 C 3,3 C 90 % 1001,7 hPa 0,0 l/m 0 min 0 min 0 W/m 19,3 km/h (3 Bft) 97,87 %
12.11.2019 18:24 4,6 C 3,3 C 3,3 C 90 % 1001,7 hPa 0,0 l/m 0 min 0 min 0 W/m 12,9 km/h (3 Bft) 95,74 %
12.11.2019 18:26 4,6 C 3,9 C 3,3 C 91 % 1001,7 hPa 0,0 l/m 0 min 0 min 0 W/m 12,9 km/h (3 Bft) 97,87 %
12.11.2019 18:28 4,6 C 3,9 C 3,3 C 91 % 1001,7 hPa 0,0 l/m 0 min 0 min 0 W/m 6,4 km/h (2 Bft) 97,56 %
12.11.2019 18:30 4,5 C 3,9 C 3,3 C 91 % 1001,7 hPa 0,0 l/m 0 min 0 min 0 W/m 16,1 km/h (3 Bft) 97,92 %
12.11.2019 18:32 4,5 C 3,9 C 3,3 C 91 % 1001,7 hPa 0,0 l/m 0 min 0 min 0 W/m 16,1 km/h (3 Bft) 97,92 %
12.11.2019 18:34 4,5 C 3,9 C 3,3 C 91 % 1001,6 hPa 0,0 l/m 0 min 0 min 0 W/m 19,3 km/h (3 Bft) 97,87 %
12.11.2019 18:36 4,5 C 3,9 C 3,3 C 91 % 1001,6 hPa 0,0 l/m 0 min 0 min 0 W/m 19,3 km/h (3 Bft) 97,83 %
12.11.2019 18:38 4,4 C 3,9 C 3,3 C 91 % 1001,7 hPa 0,0 l/m 0 min 0 min 0 W/m 16,1 km/h (3 Bft) 95,74 %
12.11.2019 18:40 4,4 C 3,9 C 3,3 C 91 % 1001,7 hPa 0,0 l/m 0 min 0 min 0 W/m 12,9 km/h (3 Bft) 97,87 %
12.11.2019 18:42 4,4 C 3,9 C 3,3 C 91 % 1001,7 hPa 0,0 l/m 0 min 0 min 0 W/m 19,3 km/h (3 Bft) 95,74 %
12.11.2019 18:44 4,4 C 3,9 C 3,3 C 91 % 1001,7 hPa 0,0 l/m 0 min 0 min 0 W/m 12,9 km/h (3 Bft) 68,09 %
12.11.2019 18:46 4,4 C 3,9 C 3,3 C 91 % 1001,7 hPa 0,0 l/m 0 min 0 min 0 W/m 16,1 km/h (3 Bft) 86,67 %
12.11.2019 18:48 4,4 C 3,9 C 3,3 C 91 % 1001,7 hPa 0,0 l/m 0 min 0 min 0 W/m 12,9 km/h (3 Bft) 97,83 %
12.11.2019 18:50 4,4 C 3,3 C 3,3 C 91 % 1001,6 hPa 0,0 l/m 0 min 0 min 0 W/m 6,4 km/h (2 Bft) 97,87 %
12.11.2019 18:52 4,4 C 3,3 C 2,8 C 91 % 1001,6 hPa 0,0 l/m 0 min 0 min 0 W/m 12,9 km/h (3 Bft) 97,87 %
12.11.2019 18:54 4,4 C 3,3 C 2,8 C 91 % 1001,7 hPa 0,0 l/m 0 min 0 min 0 W/m 12,9 km/h (3 Bft) 97,92 %
12.11.2019 18:56 4,3 C 3,3 C 2,8 C 91 % 1001,6 hPa 0,0 l/m 0 min 0 min 0 W/m 12,9 km/h (3 Bft) 97,92 %
12.11.2019 18:58 4,3 C 3,3 C 2,8 C 91 % 1001,6 hPa 0,0 l/m 0 min 0 min 0 W/m 19,3 km/h (3 Bft) 93,48 %
12.11.2019 19:00 4,3 C 3,3 C 2,8 C 91 % 1001,6 hPa 0,0 l/m 0 min 0 min 0 W/m 16,1 km/h (3 Bft) 97,87 %
12.11.2019 19:02 4,3 C 3,3 C 2,8 C 92 % 1001,7 hPa 0,0 l/m 0 min 0 min 0 W/m 16,1 km/h (3 Bft) 97,87 %
12.11.2019 19:04 4,3 C 3,3 C 2,8 C 92 % 1001,7 hPa 0,0 l/m 0 min 0 min 0 W/m 16,1 km/h (3 Bft) 95,92 %
12.11.2019 19:06 4,3 C 3,3 C 2,8 C 92 % 1001,7 hPa 0,0 l/m 0 min 0 min 0 W/m 16,1 km/h (3 Bft) 97,83 %
12.11.2019 19:08 4,3 C 3,3 C 2,8 C 91 % 1001,7 hPa 0,0 l/m 0 min 0 min 0 W/m 25,7 km/h (4 Bft) 98,31 %
12.11.2019 19:10 4,2 C 2,8 C 2,8 C 91 % 1001,7 hPa 0,0 l/m 0 min 0 min 0 W/m 12,9 km/h (3 Bft) 97,14 %
12.11.2019 19:12 4,2 C 2,8 C 2,8 C 91 % 1001,6 hPa 0,0 l/m 0 min 0 min 0 W/m 19,3 km/h (3 Bft) 97,87 %
12.11.2019 19:14 4,2 C 2,8 C 2,8 C 92 % 1001,6 hPa 0,0 l/m 0 min 0 min 0 W/m 16,1 km/h (3 Bft) 97,87 %
12.11.2019 19:16 4,1 C 2,8 C 2,8 C 92 % 1001,6 hPa 0,0 l/m 0 min 0 min 0 W/m 25,7 km/h (4 Bft) 97,83 %
12.11.2019 19:18 4,1 C 2,8 C 2,8 C 92 % 1001,6 hPa 0,0 l/m 0 min 0 min 0 W/m 19,3 km/h (3 Bft) 97,62 %
12.11.2019 19:20 4,1 C 2,8 C 2,8 C 92 % 1001,6 hPa 0,0 l/m 0 min 0 min 0 W/m 16,1 km/h (3 Bft) 100,00 %
12.11.2019 19:22 4,0 C 2,8 C 2,8 C 92 % 1001,5 hPa 0,0 l/m 0 min 0 min 0 W/m 19,3 km/h (3 Bft) 100,00 %
12.11.2019 19:24 4,0 C 2,8 C 2,8 C 92 % 1001,6 hPa 0,0 l/m 0 min 0 min 0 W/m 16,1 km/h (3 Bft) 100,00 %
12.11.2019 19:26 4,0 C 2,8 C 2,2 C 92 % 1001,5 hPa 0,0 l/m 0 min 0 min 0 W/m 12,9 km/h (3 Bft) 100,00 %
12.11.2019 19:28 3,9 C 2,8 C 2,2 C 92 % 1001,5 hPa 0,0 l/m 0 min 0 min 0 W/m 19,3 km/h (3 Bft) 97,92 %
12.11.2019 19:30 3,9 C 2,8 C 2,8 C 92 % 1001,5 hPa 0,0 l/m 0 min 0 min 0 W/m 19,3 km/h (3 Bft) 97,92 %
12.11.2019 19:32 3,9 C 2,8 C 2,2 C 92 % 1001,5 hPa 0,0 l/m 0 min 0 min 0 W/m 16,1 km/h (3 Bft) 95,74 %
12.11.2019 19:34 3,9 C 2,8 C 2,2 C 92 % 1001,5 hPa 0,0 l/m 0 min 0 min 0 W/m 16,1 km/h (3 Bft) 97,87 %
12.11.2019 19:36 3,9 C 2,8 C 2,2 C 92 % 1001,5 hPa 0,0 l/m 0 min 0 min 0 W/m 19,3 km/h (3 Bft) 97,87 %
12.11.2019 19:38 3,8 C 2,8 C 2,2 C 92 % 1001,5 hPa 0,0 l/m 0 min 0 min 0 W/m 22,5 km/h (4 Bft) 97,87 %
12.11.2019 19:40 3,8 C 2,8 C 2,2 C 92 % 1001,5 hPa 0,0 l/m 0 min 0 min 0 W/m 16,1 km/h (3 Bft) 95,65 %
12.11.2019 19:42 3,8 C 2,8 C 2,2 C 92 % 1001,5 hPa 0,0 l/m 0 min 0 min 0 W/m 25,7 km/h (4 Bft) 97,87 %
12.11.2019 19:44 3,8 C 2,8 C 2,2 C 92 % 1001,6 hPa 0,0 l/m 0 min 0 min 0 W/m 16,1 km/h (3 Bft) 95,74 %
12.11.2019 19:46 3,8 C 2,8 C 2,2 C 92 % 1001,6 hPa 0,0 l/m 0 min 0 min 0 W/m 25,7 km/h (4 Bft) 93,75 %
12.11.2019 19:48 3,7 C 2,8 C 2,2 C 92 % 1001,6 hPa 0,0 l/m 0 min 0 min 0 W/m 22,5 km/h (4 Bft) 95,74 %
12.11.2019 19:50 3,7 C 2,8 C 2,2 C 93 % 1001,6 hPa 0,0 l/m 0 min 0 min 0 W/m 19,3 km/h (3 Bft) 95,74 %
12.11.2019 19:52 3,7 C 2,8 C 2,2 C 93 % 1001,6 hPa 0,0 l/m 0 min 0 min 0 W/m 12,9 km/h (3 Bft) 95,83 %
12.11.2019 19:53 3,7 C 2,8 C 2,2 C 93 % 1001,6 hPa 0,0 l/m 0 min 0 min 0 W/m 16,1 km/h (3 Bft) 93,48 %
12.11.2019 19:56 3,7 C 2,8 C 2,2 C 93 % 1001,7 hPa 0,0 l/m 0 min 0 min 0 W/m 16,1 km/h (3 Bft) 93,75 %
12.11.2019 19:58 3,6 C 2,8 C 2,2 C 93 % 1001,7 hPa 0,0 l/m 0 min 0 min 0 W/m 16,1 km/h (3 Bft) 95,74 %
12.11.2019 20:00 3,6 C 2,8 C 2,2 C 93 % 1001,6 hPa 0,0 l/m 0 min 0 min 0 W/m 19,3 km/h (3 Bft) 95,74 %
12.11.2019 20:02 3,6 C 2,8 C 2,2 C 93 % 1001,6 hPa 0,0 l/m 0 min 0 min 0 W/m 19,3 km/h (3 Bft) 93,48 %
12.11.2019 20:04 3,6 C 2,8 C 2,2 C 93 % 1001,5 hPa 0,0 l/m 0 min 0 min 0 W/m 16,1 km/h (3 Bft) 95,74 %
12.11.2019 20:06 3,6 C 2,8 C 2,2 C 93 % 1001,5 hPa 0,0 l/m 0 min 0 min 0 W/m 16,1 km/h (3 Bft) 93,62 %
12.11.2019 20:08 3,6 C 2,8 C 2,2 C 93 % 1001,5 hPa 0,0 l/m 0 min 0 min 0 W/m 16,1 km/h (3 Bft) 95,74 %
12.11.2019 20:10 3,6 C 2,8 C 2,2 C 93 % 1001,5 hPa 0,0 l/m 0 min 0 min 0 W/m 22,5 km/h (4 Bft) 95,74 %
12.11.2019 20:12 3,6 C 2,8 C 2,2 C 93 % 1001,4 hPa 0,0 l/m 0 min 0 min 0 W/m 16,1 km/h (3 Bft) 91,49 %
12.11.2019 20:14 3,5 C 2,8 C 2,2 C 93 % 1001,4 hPa 0,0 l/m 0 min 0 min 0 W/m 16,1 km/h (3 Bft) 91,30 %
12.11.2019 20:16 3,5 C 2,8 C 2,2 C 93 % 1001,4 hPa 0,0 l/m 0 min 0 min 0 W/m 16,1 km/h (3 Bft) 95,74 %
12.11.2019 20:18 3,4 C 2,8 C 2,2 C 93 % 1001,4 hPa 0,0 l/m 0 min 0 min 0 W/m 16,1 km/h (3 Bft) 95,74 %
12.11.2019 20:20 3,4 C 2,8 C 2,2 C 93 % 1001,3 hPa 0,0 l/m 0 min 0 min 0 W/m 16,1 km/h (3 Bft) 95,74 %
12.11.2019 20:22 3,4 C 2,8 C 2,2 C 93 % 1001,2 hPa 0,0 l/m 0 min 0 min 0 W/m 6,4 km/h (2 Bft) 95,74 %
12.11.2019 20:24 3,4 C 2,2 C 2,2 C 93 % 1001,3 hPa 0,0 l/m 0 min 0 min 0 W/m 12,9 km/h (3 Bft) 95,65 %
12.11.2019 20:26 3,4 C 2,2 C 2,2 C 93 % 1001,2 hPa 0,0 l/m 0 min 0 min 0 W/m 19,3 km/h (3 Bft) 95,74 %
12.11.2019 20:28 3,4 C 2,2 C 2,2 C 93 % 1001,2 hPa 0,0 l/m 0 min 0 min 0 W/m 12,9 km/h (3 Bft) 100,00 %
12.11.2019 20:30 3,3 C 2,2 C 2,2 C 93 % 1001,2 hPa 0,0 l/m 0 min 0 min 0 W/m 12,9 km/h (3 Bft) 97,87 %
12.11.2019 20:32 3,3 C 2,8 C 2,2 C 93 % 1001,2 hPa 0,0 l/m 0 min 0 min 0 W/m 19,3 km/h (3 Bft) 100,00 %
12.11.2019 20:34 3,3 C 2,8 C 2,2 C 93 % 1001,2 hPa 0,0 l/m 0 min 0 min 0 W/m 12,9 km/h (3 Bft) 100,00 %
12.11.2019 20:36 3,3 C 2,2 C 2,2 C 93 % 1001,2 hPa 0,0 l/m 0 min 0 min 0 W/m 16,1 km/h (3 Bft) 100,00 %
12.11.2019 20:38 3,3 C 2,2 C 2,2 C 93 % 1001,2 hPa 0,0 l/m 0 min 0 min 0 W/m 9,7 km/h (2 Bft) 97,87 %
12.11.2019 20:40 3,3 C 2,2 C 2,2 C 93 % 1001,2 hPa 0,0 l/m 0 min 0 min 0 W/m 16,1 km/h (3 Bft) 100,00 %
12.11.2019 20:42 3,3 C 2,2 C 2,2 C 93 % 1001,2 hPa 0,0 l/m 0 min 0 min 0 W/m 12,9 km/h (3 Bft) 100,00 %
12.11.2019 20:44 3,2 C 2,2 C 1,7 C 93 % 1001,1 hPa 0,0 l/m 0 min 0 min 0 W/m 12,9 km/h (3 Bft) 100,00 %
12.11.2019 20:46 3,2 C 2,2 C 1,7 C 93 % 1001,2 hPa 0,0 l/m 0 min 0 min 0 W/m 16,1 km/h (3 Bft) 97,87 %
12.11.2019 20:48 3,2 C 2,2 C 1,7 C 93 % 1001,2 hPa 0,0 l/m 0 min 0 min 0 W/m 12,9 km/h (3 Bft) 100,00 %
12.11.2019 20:50 3,2 C 2,2 C 1,7 C 93 % 1001,2 hPa 0,0 l/m 0 min 0 min 0 W/m 12,9 km/h (3 Bft) 97,87 %
12.11.2019 20:52 3,2 C 2,2 C 1,7 C 93 % 1001,2 hPa 0,0 l/m 0 min 0 min 0 W/m 12,9 km/h (3 Bft) 100,00 %
12.11.2019 20:54 3,2 C 2,2 C 1,7 C 93 % 1001,2 hPa 0,0 l/m 0 min 0 min 0 W/m 16,1 km/h (3 Bft) 100,00 %
12.11.2019 20:56 3,1 C 2,2 C 1,7 C 93 % 1001,2 hPa 0,0 l/m 0 min 0 min 0 W/m 12,9 km/h (3 Bft) 97,87 %
12.11.2019 20:58 3,1 C 2,2 C 1,7 C 93 % 1001,2 hPa 0,0 l/m 0 min 0 min 0 W/m 16,1 km/h (3 Bft) 95,74 %
12.11.2019 21:00 3,1 C 2,2 C 1,7 C 93 % 1001,1 hPa 0,0 l/m 0 min 0 min 0 W/m 12,9 km/h (3 Bft) 100,00 %
12.11.2019 21:02 3,1 C 2,2 C 1,7 C 93 % 1001,1 hPa 0,0 l/m 0 min 0 min 0 W/m 12,9 km/h (3 Bft) 97,87 %
12.11.2019 21:04 3,1 C 2,2 C 1,7 C 93 % 1001,1 hPa 0,0 l/m 0 min 0 min 0 W/m 12,9 km/h (3 Bft) 100,00 %
12.11.2019 21:06 3,1 C 2,2 C 1,7 C 93 % 1001,1 hPa 0,0 l/m 0 min 0 min 0 W/m 6,4 km/h (2 Bft) 100,00 %
12.11.2019 21:08 3,0 C 2,2 C 1,7 C 93 % 1001,0 hPa 0,0 l/m 0 min 0 min 0 W/m 12,9 km/h (3 Bft) 100,00 %
12.11.2019 21:10 3,0 C 2,2 C 1,7 C 93 % 1001,0 hPa 0,0 l/m 0 min 0 min 0 W/m 12,9 km/h (3 Bft) 100,00 %
12.11.2019 21:12 3,0 C 2,2 C 1,7 C 93 % 1001,0 hPa 0,0 l/m 0 min 0 min 0 W/m 6,4 km/h (2 Bft) 95,65 %
12.11.2019 21:14 3,0 C 2,2 C 1,7 C 93 % 1001,1 hPa 0,0 l/m 0 min 0 min 0 W/m 6,4 km/h (2 Bft) 97,87 %
12.11.2019 21:16 2,9 C 2,2 C 1,7 C 93 % 1001,1 hPa 0,0 l/m 0 min 0 min 0 W/m 12,9 km/h (3 Bft) 100,00 %
12.11.2019 21:18 2,9 C 2,2 C 1,7 C 93 % 1001,2 hPa 0,0 l/m 0 min 0 min 0 W/m 16,1 km/h (3 Bft) 100,00 %
12.11.2019 21:20 2,9 C 2,2 C 1,7 C 93 % 1001,1 hPa 0,0 l/m 0 min 0 min 0 W/m 12,9 km/h (3 Bft) 100,00 %
12.11.2019 21:22 2,9 C 2,2 C 1,7 C 93 % 1001,1 hPa 0,0 l/m 0 min 0 min 0 W/m 16,1 km/h (3 Bft) 97,87 %
12.11.2019 21:24 2,9 C 2,2 C 1,7 C 93 % 1001,1 hPa 0,0 l/m 0 min 0 min 0 W/m 12,9 km/h (3 Bft) 97,83 %
12.11.2019 21:26 2,9 C 2,2 C 1,7 C 93 % 1001,2 hPa 0,0 l/m 0 min 0 min 0 W/m 12,9 km/h (3 Bft) 100,00 %
12.11.2019 21:28 2,8 C 2,2 C 1,7 C 93 % 1001,2 hPa 0,0 l/m 0 min 0 min 0 W/m 16,1 km/h (3 Bft) 100,00 %
12.11.2019 21:30 2,8 C 2,2 C 1,7 C 93 % 1001,1 hPa 0,0 l/m 0 min 0 min 0 W/m 19,3 km/h (3 Bft) 100,00 %
12.11.2019 21:32 2,8 C 2,2 C 1,7 C 93 % 1001,1 hPa 0,0 l/m 0 min 0 min 0 W/m 6,4 km/h (2 Bft) 100,00 %
12.11.2019 21:34 2,8 C 2,2 C 1,7 C 93 % 1001,0 hPa 0,0 l/m 0 min 0 min 0 W/m 12,9 km/h (3 Bft) 100,00 %
12.11.2019 21:36 2,8 C 1,7 C 1,7 C 93 % 1001,0 hPa 0,0 l/m 0 min 0 min 0 W/m 12,9 km/h (3 Bft) 100,00 %
12.11.2019 21:38 2,8 C 1,7 C 1,7 C 93 % 1001,0 hPa 0,0 l/m 0 min 0 min 0 W/m 16,1 km/h (3 Bft) 100,00 %
12.11.2019 21:40 2,8 C 1,7 C 1,7 C 93 % 1001,0 hPa 0,0 l/m 0 min 0 min 0 W/m 12,9 km/h (3 Bft) 100,00 %
12.11.2019 21:42 2,8 C 1,7 C 1,7 C 93 % 1000,9 hPa 0,0 l/m 0 min 0 min 0 W/m 12,9 km/h (3 Bft) 100,00 %
12.11.2019 21:44 2,7 C 1,7 C 1,1 C 93 % 1000,9 hPa 0,0 l/m 0 min 0 min 0 W/m 16,1 km/h (3 Bft) 100,00 %
12.11.2019 21:46 2,7 C 1,7 C 1,1 C 93 % 1000,9 hPa 0,0 l/m 0 min 0 min 0 W/m 12,9 km/h (3 Bft) 100,00 %
12.11.2019 21:48 2,7 C 1,7 C 1,1 C 93 % 1000,9 hPa 0,0 l/m 0 min 0 min 0 W/m 12,9 km/h (3 Bft) 100,00 %
12.11.2019 21:50 2,7 C 1,7 C 1,1 C 93 % 1000,8 hPa 0,0 l/m 0 min 0 min 0 W/m 12,9 km/h (3 Bft) 100,00 %
12.11.2019 21:52 2,7 C 1,7 C 1,1 C 93 % 1000,8 hPa 0,0 l/m 0 min 0 min 0 W/m 12,9 km/h (3 Bft) 100,00 %
12.11.2019 21:54 2,6 C 1,7 C 1,1 C 93 % 1000,8 hPa 0,0 l/m 0 min 0 min 0 W/m 12,9 km/h (3 Bft) 97,87 %
12.11.2019 21:56 2,6 C 1,7 C 1,1 C 93 % 1000,9 hPa 0,0 l/m 0 min 0 min 0 W/m 16,1 km/h (3 Bft) 97,87 %
12.11.2019 21:58 2,6 C 1,7 C 1,1 C 93 % 1000,9 hPa 0,0 l/m 0 min 0 min 0 W/m 12,9 km/h (3 Bft) 97,83 %
12.11.2019 22:00 2,6 C 1,7 C 1,1 C 93 % 1000,9 hPa 0,0 l/m 0 min 0 min 0 W/m 12,9 km/h (3 Bft) 100,00 %
12.11.2019 22:02 2,6 C 1,7 C 1,1 C 93 % 1000,8 hPa 0,0 l/m 0 min 0 min 0 W/m 12,9 km/h (3 Bft) 97,87 %
12.11.2019 22:04 2,6 C 1,7 C 1,1 C 93 % 1000,8 hPa 0,0 l/m 0 min 0 min 0 W/m 19,3 km/h (3 Bft) 100,00 %
12.11.2019 22:06 2,6 C 1,7 C 1,1 C 93 % 1000,8 hPa 0,0 l/m 0 min 0 min 0 W/m 16,1 km/h (3 Bft) 97,87 %
12.11.2019 22:08 2,6 C 1,7 C 1,1 C 93 % 1000,8 hPa 0,0 l/m 0 min 0 min 0 W/m 12,9 km/h (3 Bft) 97,87 %
12.11.2019 22:10 2,6 C 1,7 C 1,1 C 93 % 1000,9 hPa 0,0 l/m 0 min 0 min 0 W/m 16,1 km/h (3 Bft) 91,30 %
12.11.2019 22:12 2,5 C 1,7 C 1,1 C 93 % 1000,8 hPa 0,0 l/m 0 min 0 min 0 W/m 6,4 km/h (2 Bft) 95,74 %
12.11.2019 22:14 2,5 C 1,7 C 1,1 C 93 % 1000,8 hPa 0,0 l/m 0 min 0 min 0 W/m 12,9 km/h (3 Bft) 95,74 %
12.11.2019 22:16 2,4 C 1,1 C 1,1 C 93 % 1000,8 hPa 0,0 l/m 0 min 0 min 0 W/m 12,9 km/h (3 Bft) 95,74 %
12.11.2019 22:18 2,4 C 1,1 C 1,1 C 93 % 1000,7 hPa 0,0 l/m 0 min 0 min 0 W/m 16,1 km/h (3 Bft) 93,62 %
12.11.2019 22:20 2,4 C 1,1 C 1,1 C 93 % 1000,7 hPa 0,0 l/m 0 min 0 min 0 W/m 16,1 km/h (3 Bft) 95,65 %
12.11.2019 22:22 2,4 C 1,1 C 1,1 C 93 % 1000,7 hPa 0,0 l/m 0 min 0 min 0 W/m 16,1 km/h (3 Bft) 95,74 %
12.11.2019 22:24 2,3 C 1,1 C 1,1 C 93 % 1000,7 hPa 0,0 l/m 0 min 0 min 0 W/m 16,1 km/h (3 Bft) 93,62 %
12.11.2019 22:26 2,3 C 1,1 C 1,1 C 93 % 1000,8 hPa 0,0 l/m 0 min 0 min 0 W/m 16,1 km/h (3 Bft) 93,62 %
12.11.2019 22:28 2,3 C 1,7 C 1,1 C 93 % 1000,7 hPa 0,0 l/m 0 min 0 min 0 W/m 16,1 km/h (3 Bft) 82,98 %
12.11.2019 22:30 2,3 C 1,7 C 1,1 C 93 % 1000,8 hPa 0,0 l/m 0 min 0 min 0 W/m 12,9 km/h (3 Bft) 62,22 %
12.11.2019 22:32 2,3 C 1,7 C 1,1 C 93 % 1000,8 hPa 0,0 l/m 0 min 0 min 0 W/m 12,9 km/h (3 Bft) 95,65 %
12.11.2019 22:34 2,2 C 1,7 C 1,1 C 93 % 1000,7 hPa 0,0 l/m 0 min 0 min 0 W/m 12,9 km/h (3 Bft) 91,49 %
12.11.2019 22:36 2,2 C 1,7 C 1,1 C 93 % 1000,7 hPa 0,0 l/m 0 min 0 min 0 W/m 16,1 km/h (3 Bft) 93,62 %
12.11.2019 22:38 2,2 C 1,7 C 1,1 C 93 % 1000,7 hPa 0,0 l/m 0 min 0 min 0 W/m 19,3 km/h (3 Bft) 95,74 %
12.11.2019 22:40 2,2 C 1,7 C 1,1 C 93 % 1000,7 hPa 0,0 l/m 0 min 0 min 0 W/m 12,9 km/h (3 Bft) 93,62 %
12.11.2019 22:42 2,2 C 1,7 C 1,1 C 93 % 1000,8 hPa 0,0 l/m 0 min 0 min 0 W/m 6,4 km/h (2 Bft) 100,00 %
12.11.2019 22:44 2,2 C 1,1 C 1,1 C 93 % 1000,8 hPa 0,0 l/m 0 min 0 min 0 W/m 16,1 km/h (3 Bft) 97,83 %
12.11.2019 22:46 2,2 C 1,1 C 1,1 C 93 % 1000,8 hPa 0,0 l/m 0 min 0 min 0 W/m 16,1 km/h (3 Bft) 93,62 %
12.11.2019 22:48 2,2 C 1,1 C 1,1 C 93 % 1000,8 hPa 0,0 l/m 0 min 0 min 0 W/m 19,3 km/h (3 Bft) 93,62 %
12.11.2019 22:50 2,2 C 1,1 C 1,1 C 93 % 1000,7 hPa 0,0 l/m 0 min 0 min 0 W/m 16,1 km/h (3 Bft) 91,49 %
12.11.2019 22:52 2,2 C 1,7 C 1,1 C 93 % 1000,7 hPa 0,0 l/m 0 min 0 min 0 W/m 19,3 km/h (3 Bft) 95,74 %
12.11.2019 22:54 2,2 C 1,7 C 1,1 C 94 % 1000,7 hPa 0,0 l/m 0 min 0 min 0 W/m 22,5 km/h (4 Bft) 95,74 %
12.11.2019 22:56 2,2 C 1,7 C 1,1 C 94 % 1000,7 hPa 0,0 l/m 0 min 0 min 0 W/m 16,1 km/h (3 Bft) 95,65 %
12.11.2019 22:58 2,2 C 1,7 C 1,1 C 94 % 1000,7 hPa 0,0 l/m 0 min 0 min 0 W/m 19,3 km/h (3 Bft) 95,74 %
12.11.2019 23:00 2,2 C 1,7 C 1,1 C 94 % 1000,7 hPa 0,0 l/m 0 min 0 min 0 W/m 16,1 km/h (3 Bft) 95,74 %
12.11.2019 23:02 2,2 C 1,7 C 1,1 C 94 % 1000,6 hPa 0,0 l/m 0 min 0 min 0 W/m 16,1 km/h (3 Bft) 95,74 %
12.11.2019 23:04 2,2 C 1,7 C 1,1 C 94 % 1000,6 hPa 0,0 l/m 0 min 0 min 0 W/m 16,1 km/h (3 Bft) 95,74 %
12.11.2019 23:06 2,2 C 1,7 C 1,1 C 94 % 1000,6 hPa 0,0 l/m 0 min 0 min 0 W/m 16,1 km/h (3 Bft) 95,65 %
12.11.2019 23:08 2,2 C 1,7 C 1,1 C 94 % 1000,6 hPa 0,0 l/m 0 min 0 min 0 W/m 16,1 km/h (3 Bft) 93,62 %
12.11.2019 23:10 2,2 C 1,7 C 1,1 C 94 % 1000,7 hPa 0,0 l/m 0 min 0 min 0 W/m 16,1 km/h (3 Bft) 95,74 %
12.11.2019 23:12 2,2 C 1,7 C 1,1 C 94 % 1000,6 hPa 0,0 l/m 0 min 0 min 0 W/m 16,1 km/h (3 Bft) 95,74 %
12.11.2019 23:14 2,2 C 1,1 C 1,1 C 94 % 1000,6 hPa 0,0 l/m 0 min 0 min 0 W/m 19,3 km/h (3 Bft) 95,74 %
12.11.2019 23:16 2,2 C 1,1 C 1,1 C 94 % 1000,6 hPa 0,0 l/m 0 min 0 min 0 W/m 16,1 km/h (3 Bft) 97,87 %
12.11.2019 23:18 2,2 C 1,1 C 1,1 C 94 % 1000,6 hPa 0,0 l/m 0 min 0 min 0 W/m 12,9 km/h (3 Bft) 97,83 %
12.11.2019 23:20 2,2 C 1,1 C 1,1 C 94 % 1000,6 hPa 0,0 l/m 0 min 0 min 0 W/m 12,9 km/h (3 Bft) 95,74 %
12.11.2019 23:22 2,2 C 1,1 C 1,1 C 94 % 1000,5 hPa 0,0 l/m 0 min 0 min 0 W/m 12,9 km/h (3 Bft) 100,00 %
12.11.2019 23:24 2,1 C 1,1 C 1,1 C 94 % 1000,5 hPa 0,0 l/m 0 min 0 min 0 W/m 12,9 km/h (3 Bft) 100,00 %
12.11.2019 23:26 2,1 C 1,1 C 1,1 C 94 % 1000,5 hPa 0,0 l/m 0 min 0 min 0 W/m 16,1 km/h (3 Bft) 100,00 %
12.11.2019 23:28 2,1 C 1,1 C 1,1 C 94 % 1000,5 hPa 0,0 l/m 0 min 0 min 0 W/m 6,4 km/h (2 Bft) 97,87 %
12.11.2019 23:30 2,1 C 1,1 C 0,6 C 94 % 1000,5 hPa 0,0 l/m 0 min 0 min 0 W/m 12,9 km/h (3 Bft) 97,83 %
12.11.2019 23:32 2,1 C 1,1 C 0,6 C 94 % 1000,5 hPa 0,0 l/m 0 min 0 min 0 W/m 16,1 km/h (3 Bft) 100,00 %
12.11.2019 23:34 2,1 C 1,1 C 0,6 C 94 % 1000,5 hPa 0,0 l/m 0 min 0 min 0 W/m 12,9 km/h (3 Bft) 100,00 %
12.11.2019 23:36 2,0 C 1,1 C 0,6 C 94 % 1000,5 hPa 0,0 l/m 0 min 0 min 0 W/m 16,1 km/h (3 Bft) 97,87 %
12.11.2019 23:38 2,0 C 1,1 C 0,6 C 94 % 1000,4 hPa 0,0 l/m 0 min 0 min 0 W/m 12,9 km/h (3 Bft) 100,00 %
12.11.2019 23:40 1,9 C 1,1 C 0,6 C 94 % 1000,4 hPa 0,0 l/m 0 min 0 min 0 W/m 16,1 km/h (3 Bft) 97,87 %
12.11.2019 23:42 1,9 C 1,1 C 0,6 C 94 % 1000,4 hPa 0,0 l/m 0 min 0 min 0 W/m 12,9 km/h (3 Bft) 100,00 %
12.11.2019 23:44 1,9 C 0,6 C 0,6 C 94 % 1000,4 hPa 0,0 l/m 0 min 0 min 0 W/m 16,1 km/h (3 Bft) 100,00 %
12.11.2019 23:46 1,9 C 0,6 C 0,6 C 94 % 1000,4 hPa 0,0 l/m 0 min 0 min 0 W/m 12,9 km/h (3 Bft) 100,00 %
12.11.2019 23:48 1,9 C 0,6 C 0,6 C 94 % 1000,3 hPa 0,0 l/m 0 min 0 min 0 W/m 12,9 km/h (3 Bft) 100,00 %
12.11.2019 23:50 1,8 C 0,6 C 0,6 C 94 % 1000,2 hPa 0,0 l/m 0 min 0 min 0 W/m 16,1 km/h (3 Bft) 100,00 %
12.11.2019 23:52 1,8 C 0,6 C 0,6 C 94 % 1000,2 hPa 0,0 l/m 0 min 0 min 0 W/m 12,9 km/h (3 Bft) 100,00 %
12.11.2019 23:54 1,8 C 0,6 C 0,6 C 94 % 1000,3 hPa 0,0 l/m 0 min 0 min 0 W/m 12,9 km/h (3 Bft) 100,00 %
12.11.2019 23:56 1,8 C 0,6 C 0,6 C 94 % 1000,3 hPa 0,0 l/m 0 min 0 min 0 W/m 12,9 km/h (3 Bft) 97,87 %
12.11.2019 23:58 1,8 C 1,1 C 0,6 C 94 % 1000,3 hPa 0,0 l/m 0 min 0 min 0 W/m 19,3 km/h (3 Bft) 100,00 %
_ Min-Zeit 23:50 23:44 23:30 16:10 23:50 - - - - 00:00 01:22
Minimum _ 1,8 C 0,6 C 0,6 C 84 % 1000,2 hPa - - - - 3,2 km/h (1 Bft) 54,35 %
_ Max-Zeit 14:42 14:32 14:32 00:00 00:00 07:16 14:28 09:55 14:30 12:46 00:40
Maximum _ 6,8 C 9,4 C 6,1 C 97 % 1003,5 hPa 0,2 l/m 2 min 5 min 334 W/m 38,6 km/h
S-SO (5 Bft)
100,00 %
Durchschnitt _ 4,5 C 3,7 C 3,0 C 94 % 1002,0 hPa #2,4 l/m #28 min. #2:50 h 53 W/m 15,4 km/h (3 Bft) 97,12 %
© 2019 W. Hausmann